GFSSGP_con_3kmhel_000.txt.gz
Helicity
-27 23 7 -27 -12 -71 -123 -1 104 79 59 113 45 29 85 77 100 108 41 35 24 21 24 26 30 44 18 4 25 42 54 101 85 74 46 57 93 178 207 256 51 -16 33 109 33 46 11 21 34
-49 -74 -65 -59 -59 -105 113 84 84 139 96 30 1 48 375 165 11 60 41 30 7 30 55 28 34 24 10 24 51 68 92 97 89 65 89 53 93 132 127 126 139 49 60 32 7 22 27 16 20
-44 -8 -98 -58 -56 59 78 72 74 58 63 10 29 26 52 19 78 61 49 32 11 14 23 24 26 13 28 27 30 19 36 55 62 91 101 82 71 74 45 62 109 95 26 22 52 269 66 4 4
-42 -12 -47 -114 50 85 65 56 39 -7 15 -8 -1 109 186 105 70 101 58 39 18 -13 26 12 18 41 45 50 52 50 43 49 51 54 83 120 37 65 57 39 19 57 95 80 129 155 114 77 43
88 -84 -65 -3 95 62 37 -4 -16 11 24 18 36 183 78 70 56 31 14 9 20 25 12 35 60 64 61 56 60 55 50 46 52 54 67 97 98 62 34 49 57 68 72 74 113 218 290 -12 30
-57 37 -80 75 64 42 22 31 22 32 37 9 128 183 62 25 17 27 -14 14 31 23 33 70 62 47 42 46 44 42 45 46 51 47 48 79 77 98 151 176 183 213 166 152 135 125 97 76 77
106 -46 29 48 34 52 28 11 36 13 31 47 48 91 82 7 50 -2 35 60 57 70 73 66 63 25 18 16 29 33 34 41 44 51 46 56 78 131 134 162 210 227 227 234 230 200 136 139 132
50 59 19 6 22 88 40 17 5 36 64 19 31 27 52 3 38 27 56 67 64 60 108 83 34 43 18 21 30 47 40 52 54 62 62 57 101 91 97 110 150 173 186 195 253 302 291 201 164
97 58 48 31 25 36 46 -22 76 47 -1 58 75 102 102 103 86 65 67 43 70 100 76 94 92 117 92 49 87 70 49 40 32 41 39 22 27 22 61 109 84 109 129 119 161 195 205 227 243
46 30 119 87 22 54 19 13 51 10 44 72 73 63 96 79 78 53 42 52 161 124 108 94 66 95 75 46 115 120 99 57 33 48 24 25 77 83 83 84 83 75 77 117 171 186 146 178 194
27 72 -15 -14 -38 0 -3 12 0 4 21 -22 -61 41 27 -23 -22 -19 -17 -37 127 148 106 85 74 76 84 148 95 68 30 40 60 76 86 58 51 53 52 60 60 70 73 52 60 63 87 187 319
35 1 13 -5 1 19 25 -8 13 1 -21 -91 -38 -21 66 46 38 30 12 60 56 69 111 105 90 102 93 86 147 156 139 104 126 89 80 63 49 59 58 74 62 51 44 43 68 75 74 66 141
35 38 37 33 66 56 42 46 59 59 18 60 15 53 63 61 59 68 59 86 91 58 98 133 117 79 60 105 133 152 160 159 124 116 105 110 113 104 71 95 71 73 65 63 68 71 79 77 68
12 16 33 37 53 65 87 77 28 44 74 92 53 64 59 90 52 72 116 63 92 72 137 134 92 69 80 113 127 141 168 151 157 161 145 127 151 126 139 129 127 100 102 93 84 89 78 86 89
36 64 185 82 48 42 29 104 117 86 180 88 74 70 45 61 91 82 86 142 73 111 127 141 98 119 112 170 153 127 154 167 200 209 201 198 172 160 170 183 181 164 102 87 80 77 87 90 92
125 96 25 9 60 61 35 28 -10 70 88 158 97 99 113 69 51 84 127 103 129 167 195 153 140 197 154 167 193 164 220 148 171 199 197 182 175 164 152 163 171 133 99 102 103 100 93 87 94
33 -22 -20 12 69 58 23 23 -5 -5 64 107 126 98 93 126 137 119 113 165 221 199 206 176 190 173 185 191 182 243 310 184 189 253 200 177 177 161 152 174 169 126 112 100 92 104 98 104 103
-19 -3 11 36 9 -25 -4 24 13 28 53 29 47 60 81 61 9 104 191 248 308 224 203 188 208 183 208 210 191 295 251 171 304 239 247 227 209 173 155 155 126 85 79 100 103 78 104 107 94
16 40 36 23 13 5 3 18 32 7 54 73 83 135 137 102 67 56 162 323 294 227 207 152 148 166 226 199 254 220 244 187 207 163 257 258 195 155 139 148 190 136 123 136 74 83 92 99 129
14 13 0 -2 -6 3 60 40 10 118 152 84 81 96 87 86 95 141 168 185 196 160 120 135 102 128 218 185 197 160 172 170 206 210 273 309 181 189 179 132 139 128 153 110 79 60 81 82 96
-14 27 -8 13 20 38 10 38 69 158 171 103 64 60 87 98 74 115 129 129 180 166 146 82 87 94 182 220 128 198 236 197 255 288 310 279 162 165 144 152 161 147 134 103 96 75 57 67 90
-5 54 -5 13 -4 3 17 18 35 108 179 109 106 115 94 95 93 91 96 91 104 134 174 132 50 93 113 235 263 142 262 305 204 162 173 173 212 139 137 165 164 195 218 178 124 96 98 93 83
15 -2 50 55 29 27 48 47 80 91 107 121 143 206 155 127 142 128 116 120 131 126 162 190 143 108 113 144 275 351 279 281 248 226 232 232 255 302 357 323 315 209 232 245 178 156 114 101 100
21 9 22 53 73 36 53 84 26 35 97 150 175 216 243 190 189 147 111 125 175 139 162 176 209 184 179 192 195 344 409 326 328 292 363 425 409 411 442 424 383 324 277 242 219 173 150 140 132
61 41 24 83 88 82 97 97 131 -34 86 114 289 286 192 167 108 208 194 155 164 185 130 154 246 288 272 251 239 294 402 430 335 305 387 440 545 461 420 359 405 250 223 174 143 139 153 159 151
25 46 76 95 110 86 10 48 43 41 114 168 160 135 78 64 109 163 118 92 128 220 202 142 151 161 211 253 300 373 417 497 471 453 495 578 439 354 310 209 238 182 182 145 119 129 141 138 135
63 69 107 131 135 170 77 18 -6 49 117 142 65 72 160 124 105 124 90 81 114 163 186 176 204 108 134 170 190 334 424 546 670 735 694 456 336 257 349 380 253 150 119 122 128 157 161 153 135
50 68 82 105 139 182 150 80 59 47 108 78 40 101 143 100 99 108 114 183 147 224 169 216 167 204 166 160 267 446 576 682 754 838 655 402 373 383 254 286 161 136 126 117 130 165 168 169 165
86 62 96 102 136 198 218 217 153 -33 8 91 75 89 100 82 87 122 140 144 243 212 255 162 158 209 254 269 320 474 517 541 555 499 478 497 416 299 207 135 135 100 101 114 134 153 156 154 144
35 23 52 140 189 169 185 275 7 15 64 -75 48 74 71 140 156 214 188 125 170 311 232 76 173 237 340 359 489 495 462 432 410 430 437 396 223 128 141 99 84 93 109 123 137 145 139 137 132

GFSSGP_con_3kmhel_003.txt.gz
Helicity
-3 19 53 -20 -38 -35 18 16 89 177 106 85 29 140 100 -25 24 57 -19 14 30 14 -5 6 14 23 31 52 50 77 96 137 139 82 69 110 117 142 157 138 100 116 193 105 72 87 91 57 80
0 -13 -52 -40 12 23 76 36 129 96 64 33 59 118 92 -13 -34 3 -6 -9 -16 25 -3 1 25 46 34 17 31 44 74 118 126 96 89 86 88 99 113 112 113 98 112 88 80 134 79 153 105
14 -63 -52 -4 5 44 67 73 23 -21 2 44 57 129 68 30 115 43 -21 -24 4 -3 -1 10 12 4 5 22 43 77 87 103 111 89 60 46 44 39 38 61 114 97 117 69 42 60 94 141 47
-53 -43 -38 -27 43 43 60 40 14 23 -25 55 67 154 96 122 10 1 13 -31 27 21 15 25 41 50 43 63 75 74 66 54 69 76 72 49 22 20 9 27 49 51 63 37 82 92 81 143 154
40 -11 -18 -15 56 112 156 72 -19 97 34 -47 -41 14 31 172 21 9 3 -2 35 15 24 36 46 46 48 47 50 49 47 50 53 61 56 50 11 22 23 18 28 51 64 89 74 69 112 84 48
4 19 27 -34 35 71 69 68 107 76 25 -22 -4 -5 17 57 35 -33 -23 42 11 35 46 22 40 34 36 27 27 26 40 54 64 71 72 74 87 84 89 123 112 96 69 64 62 60 63 98 120
93 82 61 26 76 97 51 46 93 63 93 58 39 55 19 9 1 -9 51 106 43 -7 52 7 21 4 9 20 21 28 41 59 59 74 91 85 96 101 118 116 108 119 127 125 103 68 70 90 85
121 131 -24 70 59 17 7 32 25 34 47 32 53 82 47 7 30 56 122 74 77 134 86 60 51 19 5 -3 0 16 39 61 64 78 87 85 69 62 72 85 92 95 118 131 138 142 130 117 105
31 12 133 138 123 19 7 26 30 25 34 48 108 57 0 42 63 40 48 20 161 171 142 134 145 93 61 83 60 67 78 86 64 53 75 73 37 47 54 67 77 90 104 136 154 179 185 127 103
-10 59 -2 -14 38 30 42 -20 -49 -74 -16 15 60 58 26 140 29 -26 -11 -13 219 276 232 114 92 101 90 129 127 128 92 78 50 64 73 65 80 68 55 60 70 72 70 74 95 112 119 101 62
-12 1 -34 -56 -49 -3 29 2 -17 -12 8 -22 24 74 87 90 68 14 17 66 171 172 173 126 79 45 76 93 115 122 111 87 104 130 113 101 97 100 109 89 85 80 73 53 56 50 28 39 87
8 15 13 36 21 33 16 -13 13 37 23 -3 -35 -35 60 107 63 78 57 109 137 180 140 108 85 81 95 110 135 146 130 161 148 129 138 120 122 121 150 133 116 94 84 65 45 49 45 53 51
43 43 60 70 72 75 66 42 47 74 58 78 75 103 96 108 90 89 164 168 200 187 145 145 112 113 96 110 137 167 198 188 186 170 164 180 162 141 147 132 127 137 111 100 68 52 41 39 42
56 23 53 69 39 100 101 126 85 56 65 189 155 134 78 46 78 88 151 178 163 154 204 186 141 117 86 111 128 158 191 188 217 207 167 202 189 185 171 159 139 169 160 147 123 99 80 57 44
89 99 72 67 19 95 69 19 22 102 191 209 212 160 137 91 83 102 135 148 161 125 217 201 124 117 104 139 154 148 161 190 229 225 218 230 188 186 218 218 235 168 144 124 117 113 102 94 76
111 55 24 -1 115 54 84 46 10 56 180 186 228 201 171 105 102 132 165 208 199 283 292 215 148 143 132 154 163 165 166 182 196 205 200 183 178 169 210 223 207 193 195 162 147 134 122 98 83
3 10 -2 35 90 46 78 66 67 36 97 235 227 167 94 93 95 100 158 238 352 408 368 299 244 210 153 169 189 174 216 224 183 239 198 150 160 178 218 218 173 161 152 151 142 119 93 86 81
12 15 45 -36 -59 -49 -38 -11 0 61 -1 87 106 83 124 197 205 91 132 265 390 397 347 304 241 188 174 180 178 222 249 233 209 261 275 212 171 150 183 193 162 137 135 153 116 95 76 60 58
-10 0 -26 -34 -35 -65 -20 51 58 22 156 152 175 188 201 180 145 126 227 274 309 281 237 200 190 141 166 182 195 190 209 179 173 189 223 276 243 163 139 178 194 178 189 134 88 71 42 50 61
-43 -11 2 4 -5 -21 23 79 103 186 175 156 127 103 94 85 85 86 118 156 160 151 144 135 117 116 138 185 184 203 183 160 187 172 230 276 300 232 218 189 209 241 229 206 163 123 87 79 67
11 35 24 -15 6 71 36 21 152 210 222 180 149 120 104 117 104 112 125 133 119 110 132 133 92 104 159 210 247 242 230 227 249 240 256 305 323 255 242 209 197 219 255 267 211 155 112 89 92
31 26 -4 24 33 63 133 50 84 236 176 184 118 130 170 160 167 145 115 118 110 83 143 106 111 102 100 176 300 305 305 302 307 281 241 258 259 274 242 195 214 268 319 417 358 301 197 128 106
51 45 85 102 86 80 63 113 29 196 210 123 141 200 206 189 161 197 130 138 146 200 151 112 125 132 121 170 236 297 320 327 313 288 274 260 266 260 255 347 442 458 372 354 307 264 254 157 109
47 35 29 87 83 107 146 112 32 99 33 126 272 240 263 161 169 195 184 184 177 168 131 108 148 177 190 236 256 328 346 349 416 431 461 420 458 521 566 550 461 378 309 353 390 334 294 210 105
76 40 39 75 90 96 34 67 70 79 92 175 176 132 72 84 113 81 114 151 208 271 237 191 182 202 184 239 253 290 349 370 425 506 579 592 598 581 542 449 448 366 298 376 310 302 248 89 108
34 51 61 65 69 70 49 73 28 30 187 98 41 19 112 146 106 119 121 165 289 311 263 239 192 173 131 138 145 166 216 334 405 550 631 740 768 666 551 595 408 314 345 425 294 182 124 115 126
39 59 61 102 107 138 85 44 -39 5 63 -27 58 127 154 96 130 104 148 208 215 210 208 175 128 155 145 180 227 195 194 279 449 665 759 764 677 643 611 728 524 535 451 163 123 133 137 124 123
55 38 71 63 79 91 137 140 99 47 7 101 98 65 -27 38 146 163 137 157 244 299 225 136 168 125 123 306 316 315 324 385 447 521 618 633 567 620 727 500 321 138 112 114 113 123 111 122 144
73 89 75 99 113 200 226 247 180 25 66 39 53 84 113 200 291 283 270 210 242 152 97 105 96 75 134 306 373 390 351 334 344 397 391 414 350 286 162 95 56 99 111 98 106 116 118 127 126
150 100 72 127 134 172 235 327 110 114 45 62 81 131 214 262 238 299 288 248 176 146 63 107 69 135 144 307 411 439 396 368 345 356 352 338 256 179 109 93 107 101 96 108 115 110 112 108 105

GFSSGP_con_3kmhel_006.txt.gz
Helicity
-2 20 -7 -27 36 45 92 63 5 73 80 27 -8 -21 -63 73 88 86 -8 6 7 -0 -15 -0 22 29 52 86 85 98 99 98 69 53 99 96 89 81 75 78 84 108 92 137 153 259 243 208 326
22 -17 -39 -34 42 106 106 -3 17 7 -70 -49 -9 -50 25 30 -38 1 27 12 7 8 -11 6 12 42 54 60 63 62 82 90 85 69 72 67 50 49 54 85 99 86 76 133 166 178 156 165 92
7 -46 -25 37 49 53 55 30 6 58 39 35 13 39 -4 -25 -33 44 -2 26 16 7 -0 7 24 37 47 54 52 67 73 77 62 52 40 27 23 26 43 57 44 43 80 125 110 82 87 56 3
-24 -50 -37 56 40 21 54 131 18 38 73 44 43 89 -1 -59 7 25 -8 61 37 11 -2 25 49 60 62 51 38 28 50 66 88 70 44 29 15 16 29 51 41 44 45 72 43 80 34 16 128
6 -10 90 78 11 30 66 139 119 134 71 1 -6 60 48 27 3 26 35 77 61 -5 7 26 40 37 34 26 17 25 45 70 78 87 82 64 57 52 53 51 36 24 55 48 59 38 48 28 17
2 22 104 59 -8 -6 21 18 54 59 -21 -49 5 19 -14 6 20 17 69 58 20 11 8 21 28 27 3 10 18 31 48 69 87 85 89 101 91 78 73 77 44 25 36 43 35 15 48 107 81
94 65 43 7 -2 44 23 23 42 37 35 22 17 41 2 20 5 60 58 39 29 34 51 37 15 -8 -13 8 27 48 82 109 107 109 114 103 97 95 89 82 72 71 62 50 39 20 18 24 58
83 38 -0 -17 34 104 -0 21 4 40 33 23 2 30 1 -19 45 83 80 61 96 82 78 45 31 6 -3 11 28 54 64 93 81 78 81 78 85 70 61 66 55 51 57 68 60 54 58 59 66
46 -22 101 80 108 92 30 69 12 16 27 -9 30 48 25 53 115 101 76 158 172 101 74 96 101 65 49 67 89 97 86 71 75 62 91 84 67 61 56 51 56 45 53 76 97 108 114 107 81
10 7 -5 -9 -14 50 47 26 5 -3 -12 32 39 39 115 106 101 113 5 152 176 248 162 130 123 102 105 103 139 84 114 81 66 68 82 68 72 68 73 72 78 85 83 64 46 58 73 65 54
2 -8 -24 -16 -37 -5 73 79 59 -8 50 61 121 122 144 129 45 41 46 126 257 215 171 151 94 81 127 124 101 92 116 95 75 87 100 107 100 94 98 99 101 112 101 90 77 51 30 30 20
18 51 60 63 32 13 6 -6 23 48 31 44 95 129 148 132 66 39 79 176 213 201 174 110 64 90 126 107 86 89 118 123 121 110 133 131 126 126 121 121 114 110 104 99 90 90 73 55 45
23 35 34 62 75 39 35 27 53 43 34 115 143 194 182 137 80 41 155 194 188 187 159 111 116 88 122 116 118 147 174 185 182 176 168 161 161 147 126 119 123 123 128 132 124 109 88 67 53
63 60 44 68 78 67 101 59 32 83 61 112 208 232 216 160 145 168 203 218 205 196 188 170 151 101 120 114 104 129 161 201 211 199 200 195 184 163 148 148 141 148 144 139 142 140 122 103 85
53 57 37 28 27 69 88 8 55 27 109 151 203 216 161 80 80 132 170 201 201 212 250 216 164 136 122 127 117 122 132 176 190 185 197 196 191 186 184 187 174 157 154 151 145 127 122 122 107
31 13 9 33 63 39 110 54 18 4 77 150 212 219 135 56 76 109 148 185 228 305 277 223 216 175 129 110 120 120 132 158 166 160 169 164 155 171 201 225 201 174 158 144 137 139 136 123 109
-6 28 24 20 33 24 104 111 62 -37 37 133 200 175 79 63 81 90 112 163 250 303 295 263 209 150 131 129 132 153 150 170 164 163 159 149 148 152 167 168 152 162 176 159 143 130 123 109 102
-7 -21 -14 -5 -16 -57 30 61 20 13 85 67 118 189 173 212 157 67 171 231 323 303 237 188 148 131 134 147 152 152 159 169 200 196 193 177 166 137 166 153 141 161 169 155 149 131 110 84 70
-37 -25 2 -15 -3 -79 -3 3 42 76 197 159 119 197 226 175 66 85 183 272 291 240 182 153 126 91 134 119 123 135 155 168 186 199 218 215 203 183 188 179 165 185 197 166 153 149 110 92 61
41 41 29 23 -13 8 17 11 50 106 124 131 138 137 121 77 76 70 87 97 125 133 116 91 89 68 89 137 142 175 208 200 211 194 221 239 254 263 258 243 224 232 256 258 248 228 214 170 127
-5 62 33 44 28 47 45 69 49 83 162 133 118 106 113 118 124 105 93 102 122 133 129 95 107 87 95 103 133 172 245 264 262 245 264 283 311 329 326 304 306 275 286 316 325 372 349 282 236
9 39 27 52 49 73 89 60 53 54 113 150 144 139 188 179 125 106 80 111 109 100 103 90 126 117 89 131 185 250 287 309 312 330 358 312 337 340 364 338 332 324 356 445 539 543 478 370 304
43 34 77 48 85 84 130 69 19 62 110 101 122 196 155 88 101 89 93 129 94 82 96 116 152 134 114 150 194 269 289 351 332 349 345 343 382 420 418 430 491 555 589 589 505 390 452 355 305
1 29 31 61 75 81 58 50 83 101 49 163 188 134 81 83 69 90 149 147 206 219 187 177 189 185 164 136 122 251 254 286 327 290 348 421 508 516 431 571 668 673 658 694 645 545 383 264 336
49 19 50 90 69 39 32 29 118 -11 80 94 101 54 74 72 73 62 100 216 254 294 283 233 185 128 92 86 150 149 199 207 218 228 297 479 661 719 597 641 702 712 745 622 613 494 615 299 298
-13 -30 22 43 53 50 36 77 78 30 -55 -72 -2 -14 33 68 9 77 178 270 279 280 281 239 260 167 144 116 161 141 156 167 155 166 253 450 583 686 782 783 824 726 450 522 469 485 208 140 141
17 31 43 78 77 106 52 34 -0 85 -5 6 31 -6 87 66 97 123 179 299 334 294 209 134 124 108 149 160 175 195 204 179 198 262 326 470 682 802 924 811 475 474 341 156 22 95 127 148 167
43 64 101 72 93 89 99 94 110 39 18 36 27 -60 76 202 274 270 267 275 242 199 114 96 101 122 152 136 173 240 253 282 308 355 421 498 541 521 416 472 292 76 -95 -64 17 91 128 134 144
66 88 87 70 111 137 160 175 117 51 91 44 -17 147 177 220 221 208 222 206 182 138 109 115 112 97 117 97 143 225 285 327 382 408 377 361 323 272 106 -18 -13 -23 7 55 93 95 102 109 115
50 58 36 78 125 140 203 227 92 128 14 8 68 146 164 129 150 191 166 131 89 69 94 93 86 103 121 75 148 235 298 373 418 391 320 302 250 170 67 18 37 77 63 65 82 96 106 114 117

GFSSGP_con_3kmhel_009.txt.gz
Helicity
40 4 -44 -66 60 81 140 79 6 31 39 -44 -37 16 -31 -25 11 22 -23 -4 -28 -32 -10 -5 24 10 24 44 47 60 99 73 62 68 71 57 57 61 61 83 153 178 145 75 56 68 178 209 189
-8 -74 -60 -23 64 224 199 92 77 3 -61 -37 -2 -18 8 -9 -13 -7 23 -14 -4 -18 16 -27 20 9 13 47 58 64 81 73 58 51 43 42 40 47 60 105 140 122 61 44 47 45 76 124 159
-70 -65 -37 7 85 181 140 14 -22 -39 -28 1 8 15 2 -28 -16 18 13 5 -9 -2 -4 -4 30 19 13 40 53 65 75 72 61 44 37 30 27 45 74 70 79 76 61 52 68 46 37 112 127
-39 -27 9 66 105 25 26 4 11 10 33 52 40 63 -29 -49 -2 13 -1 4 19 4 5 7 11 18 23 22 27 30 36 43 40 45 57 45 37 44 60 56 51 64 54 44 23 16 40 47 50
-19 13 110 61 33 -17 -41 41 77 125 98 50 18 32 -5 -5 39 44 19 19 20 -15 -21 5 26 16 11 26 32 38 41 45 58 62 47 56 64 67 60 47 29 23 31 38 31 32 34 40 61
43 23 83 76 26 -37 6 -16 43 56 27 -2 24 43 30 -16 49 -2 -5 11 -0 -0 11 7 13 18 4 11 27 37 51 67 76 75 67 67 63 66 55 39 26 20 15 18 19 19 36 45 22
106 61 75 49 36 27 45 32 75 52 20 -9 7 41 -10 -10 22 25 18 32 21 14 25 13 9 -3 10 20 55 71 77 86 83 66 61 61 65 62 53 44 40 21 6 4 3 -1 3 21 47
69 64 45 1 19 1 -6 53 45 25 -23 18 23 35 11 -34 58 80 71 76 47 27 33 30 16 30 39 40 55 74 69 69 60 45 57 56 53 56 55 47 39 40 38 33 30 39 37 53 62
27 86 50 24 17 11 17 23 11 -17 -7 8 -9 16 9 106 107 129 118 105 63 36 72 51 63 81 59 72 75 59 76 54 46 40 46 46 38 46 45 48 61 71 77 69 63 77 83 78 67
5 34 6 -6 -16 72 90 52 39 26 41 38 12 -0 40 147 123 161 164 162 108 91 90 93 100 78 70 68 80 43 53 66 70 65 81 67 52 46 60 68 76 74 79 73 62 66 75 57 38
9 7 -2 -2 22 32 78 86 73 50 41 53 85 120 150 150 120 177 193 188 176 156 134 114 77 69 44 46 79 66 66 67 80 79 86 84 79 73 77 91 88 87 89 77 79 73 71 73 51
38 67 83 50 35 19 18 8 17 30 33 69 119 178 151 150 99 48 140 154 209 217 147 135 119 85 62 103 102 85 86 86 90 87 98 115 111 106 106 108 101 96 92 90 92 92 76 72 72
35 48 41 26 53 33 1 31 28 22 50 51 85 159 187 131 73 45 77 105 223 195 187 177 166 118 115 125 130 109 94 111 138 140 111 115 125 120 123 113 110 108 124 125 120 112 102 90 79
48 45 39 24 56 49 46 51 21 4 15 107 170 182 134 111 72 71 83 145 179 162 172 160 130 114 137 111 119 123 135 155 170 159 138 129 129 126 129 125 126 127 127 122 117 110 109 111 105
22 27 1 9 53 31 39 21 67 44 62 100 172 164 122 79 99 138 163 221 191 168 182 169 145 148 123 99 101 118 124 150 167 166 149 138 154 145 139 139 139 126 124 113 115 109 104 103 98
-7 -11 36 26 24 7 57 79 48 48 71 93 130 180 145 75 110 115 136 201 195 214 221 174 151 146 120 89 88 101 115 135 132 142 151 142 142 140 151 153 141 135 127 125 119 105 96 92 90
13 5 15 29 23 -19 44 100 82 -7 39 66 94 176 121 62 55 34 120 208 229 234 247 183 140 142 104 82 79 89 100 113 121 149 159 138 147 153 156 147 133 134 135 137 133 120 114 104 105
-1 -19 -18 7 -16 -61 -58 36 58 30 55 48 44 101 47 27 43 4 49 145 211 230 183 147 109 118 109 78 81 82 89 109 141 140 165 158 184 191 185 169 156 169 165 153 158 135 129 120 102
-22 -29 -30 -32 3 -75 -31 2 28 -33 55 50 74 145 145 114 77 53 65 110 192 178 145 84 80 71 139 115 94 83 104 134 179 188 163 175 202 220 243 233 211 228 218 196 191 186 164 151 138
-11 -13 -13 -7 -7 -16 17 25 78 69 45 43 87 131 152 136 102 60 34 37 83 107 84 56 67 90 86 113 104 113 143 120 172 236 247 248 259 254 294 307 296 306 300 269 278 298 285 227 221
-22 28 -14 18 11 50 6 32 63 63 62 91 66 107 109 86 61 40 24 49 66 81 79 92 102 102 114 130 156 171 206 174 205 215 293 315 363 332 349 373 383 375 414 387 391 412 406 356 354
-14 23 41 5 19 50 48 50 109 56 65 91 114 124 80 68 58 54 41 29 30 30 65 67 92 111 130 160 207 205 221 203 235 253 260 271 329 334 359 381 435 435 474 417 422 434 489 553 550
9 25 23 49 62 65 55 85 87 66 64 92 135 98 66 84 57 19 14 -1 39 80 113 129 136 151 189 192 174 175 190 229 247 247 222 231 268 313 318 357 465 476 434 470 511 557 631 618 655
6 32 43 59 66 73 75 86 107 101 70 61 69 23 27 -9 -14 49 136 145 199 269 299 333 340 323 288 215 147 107 157 184 208 177 178 206 226 228 282 441 555 625 701 830 628 641 776 731 528
31 38 43 71 69 42 72 92 126 58 64 63 23 49 59 84 94 98 140 227 309 338 324 286 251 220 180 166 138 118 139 150 153 165 178 172 217 262 344 509 788 819 821 790 791 807 757 705 644
7 9 32 58 80 53 68 129 113 138 94 -8 53 59 55 135 140 207 240 287 264 251 252 252 194 124 92 103 176 181 153 173 174 167 165 187 266 390 557 713 713 751 902 773 769 875 503 163 81
19 31 18 69 78 108 67 67 63 157 74 -34 36 60 130 179 244 253 219 219 224 216 185 158 134 125 141 173 144 144 146 136 158 191 224 245 348 438 522 561 613 617 601 567 272 68 -116 -136 -51
61 34 57 71 108 81 104 48 108 105 19 -15 -29 52 168 170 215 175 163 167 176 148 107 100 146 146 143 138 125 109 120 142 197 258 277 330 375 367 326 317 258 259 111 -71 -46 -53 34 54 78
68 93 97 76 103 127 163 204 155 36 62 106 91 63 42 119 106 117 118 149 113 102 90 88 135 102 120 118 107 90 125 178 277 336 348 322 283 238 175 182 81 -32 14 21 47 58 75 91 93
75 96 58 102 142 193 239 296 79 109 19 47 90 116 123 133 152 140 115 94 120 52 48 66 90 89 92 77 61 75 133 204 307 341 303 264 216 154 103 107 99 78 74 85 93 86 107 119 101

GFSSGP_con_3kmhel_012.txt.gz
Helicity
25 -17 -58 -22 90 125 193 112 -22 -0 9 -36 -32 10 24 30 35 20 -6 -4 2 -22 -42 -51 -29 13 47 30 50 36 58 53 53 52 59 58 63 77 106 171 170 154 125 92 78 41 62 62 79
-24 -76 -52 -19 128 289 206 28 -19 -49 -25 -1 25 23 42 20 -6 -2 28 -17 -19 -30 -24 -26 -18 7 2 8 36 35 55 52 50 59 64 57 63 82 134 131 133 131 98 57 34 10 14 40 74
-54 -46 -37 34 128 156 102 -11 -0 -19 -8 7 15 9 -9 -12 -17 -5 2 -9 -16 -24 -22 -14 -4 1 3 17 21 31 44 46 51 42 30 34 56 80 91 77 74 73 64 54 61 70 51 46 50
-44 -52 -7 141 163 24 -10 -35 -17 -1 2 10 14 70 -26 -48 -20 -23 -25 -9 -11 -29 -18 -10 1 1 1 6 21 29 40 53 55 54 44 48 56 61 61 57 63 64 66 62 59 62 66 61 69
-28 3 118 97 90 -12 -56 -45 -21 -26 3 6 -5 -0 -39 6 -6 13 -22 -23 -5 -18 -33 -30 -14 -7 -5 20 35 48 58 72 62 47 46 61 64 43 31 42 48 54 56 58 71 78 67 70 65
17 -17 95 96 17 -32 -24 -10 20 44 16 -3 26 14 8 -16 18 -44 -30 -31 -23 -12 -41 -27 -13 2 26 32 41 49 61 60 41 34 38 34 35 30 32 35 36 37 37 38 45 46 59 69 71
19 29 56 17 -14 -19 -19 -5 34 18 15 25 44 41 6 -3 -30 -31 -17 3 -22 2 12 -3 -2 5 17 20 25 42 47 50 37 24 18 36 41 26 12 14 23 39 45 54 55 51 29 48 79
33 50 56 16 24 14 -4 -0 -6 4 16 27 32 29 10 -23 39 42 19 -1 9 18 4 3 5 19 33 30 41 37 39 33 26 23 40 58 56 44 33 26 26 34 46 52 49 39 39 55 71
56 61 46 13 5 -0 11 9 11 -12 -5 1 13 23 -1 54 107 106 84 35 23 16 1 10 28 50 61 51 43 27 25 25 29 34 52 60 51 43 38 37 49 58 64 62 62 64 64 67 68
29 28 -1 -5 25 36 78 92 67 53 30 15 15 8 39 170 169 172 120 82 32 38 11 33 69 74 67 44 55 54 32 40 43 51 56 57 57 53 52 52 57 58 59 68 79 77 71 68 55
23 19 17 22 19 34 62 73 67 71 33 43 49 92 142 135 127 147 95 88 68 60 55 80 99 82 57 41 53 61 64 62 54 57 66 63 60 61 65 64 68 69 75 73 77 73 64 60 55
46 46 19 26 19 7 22 13 35 71 47 45 49 115 137 130 138 132 81 79 88 103 88 93 86 71 53 42 64 79 84 81 73 70 76 78 79 79 76 81 81 85 86 82 82 77 66 66 63
49 38 39 33 38 29 21 33 29 48 29 12 78 98 127 113 104 81 66 78 91 115 118 101 92 73 63 62 84 102 92 98 101 106 109 107 94 93 97 92 92 90 90 90 88 92 89 72 56
43 22 16 3 3 8 16 17 -4 20 -0 19 85 115 91 96 74 83 72 84 124 122 124 108 109 105 101 89 95 76 81 93 118 126 120 114 117 121 124 117 112 110 105 95 89 81 82 87 75
12 8 26 -11 1 -7 -14 -18 4 43 21 37 65 89 80 67 51 62 86 124 162 151 136 139 128 110 103 101 91 76 75 95 104 101 99 105 118 127 133 131 127 120 124 119 112 102 95 88 89
18 13 14 27 18 25 -25 -61 24 6 27 32 44 74 75 32 10 -12 -9 58 118 179 168 138 115 98 86 83 60 53 63 77 84 89 113 117 121 128 142 153 142 135 150 152 146 128 117 107 98
28 -7 11 25 -0 -8 -21 4 22 -30 -15 34 -22 41 48 -5 7 -7 -0 66 126 146 166 143 83 55 75 66 59 73 71 78 77 90 133 147 153 154 174 184 163 159 174 175 173 158 165 151 119
-13 -15 -7 -7 -18 -16 -30 -6 40 -23 -18 -58 -23 26 77 40 41 30 19 70 116 135 142 129 67 49 65 87 114 118 96 93 92 79 116 156 202 210 236 224 206 217 213 194 198 176 174 167 148
-28 -25 -24 -5 2 -44 -17 12 41 57 55 35 24 60 96 76 53 56 30 37 91 106 121 93 81 76 97 120 135 117 115 108 124 122 130 184 221 248 277 295 278 288 281 234 242 239 199 174 182
-8 2 -5 -2 -0 -28 10 46 81 117 109 79 48 66 86 82 61 80 72 17 -2 33 54 58 54 89 116 175 196 169 144 140 124 137 128 183 239 261 302 328 353 369 358 312 288 330 299 250 267
-17 -13 -24 -26 -5 28 8 66 80 77 114 80 76 61 72 78 81 20 11 -2 10 9 34 65 77 98 149 165 167 174 169 168 166 145 173 182 215 203 253 282 332 379 433 399 368 387 410 344 380
-21 5 -16 -9 32 35 50 63 93 96 78 94 67 49 49 33 7 7 19 27 29 52 64 64 86 132 183 196 190 180 165 162 171 183 205 175 157 157 186 235 282 311 376 420 463 471 491 489 472
-33 -9 7 28 51 61 69 90 95 124 99 84 54 6 23 11 10 48 45 72 113 124 160 181 210 256 241 203 159 153 151 177 200 199 174 167 158 137 133 164 201 282 364 396 432 495 535 627 601
8 33 53 57 64 83 69 89 94 137 139 81 82 99 61 37 64 83 116 161 201 211 248 256 254 238 222 159 120 98 104 144 118 130 140 132 137 129 133 152 233 322 411 487 647 807 878 822 849
47 53 58 77 94 62 52 92 155 207 100 94 131 106 54 90 121 120 179 228 257 263 254 241 202 168 111 84 71 108 121 106 116 135 136 124 134 177 226 295 403 512 579 651 713 733 749 800 674
24 28 50 69 75 56 71 93 204 263 216 207 129 68 87 119 157 185 232 206 224 210 184 131 100 72 50 90 124 130 128 115 105 101 100 149 220 247 290 373 408 401 413 460 477 505 525 525 422
5 32 15 53 65 85 63 75 96 212 151 64 -14 10 44 122 162 189 172 173 179 123 103 88 89 98 100 96 97 93 86 70 68 102 134 213 273 300 328 327 280 234 218 182 168 188 27 -25 -8
53 28 44 48 63 62 86 52 75 233 133 51 -25 19 88 93 150 150 132 136 139 120 83 77 110 132 141 99 93 73 67 78 113 144 147 245 286 261 224 183 156 87 31 64 19 17 -150 -135 -51
63 72 82 63 85 105 129 144 143 58 21 -24 45 65 102 104 84 111 92 88 83 99 97 99 119 119 132 104 79 77 73 71 110 150 187 210 233 203 184 157 137 117 88 77 63 52 49 55 64
64 91 85 88 96 148 199 247 69 144 35 3 58 94 114 84 74 84 94 93 81 137 175 188 149 108 84 66 73 69 73 90 95 154 224 252 313 281 235 205 171 160 136 113 102 96 86 74 70

GFSSGP_con_3kmhel_015.txt.gz
Helicity
10 -15 -43 -23 79 109 162 94 -21 -13 -27 -47 -35 -21 7 2 -3 31 12 -5 7 -3 -30 -25 -17 -12 -2 33 39 36 38 55 61 61 91 104 120 163 177 155 134 124 82 94 86 61 38 43 55
-31 -46 -22 21 125 234 195 -15 -24 -22 -11 -3 7 -7 -7 5 -16 -3 -5 -34 -22 -21 -32 -32 -37 -33 -28 -7 22 34 31 27 33 44 58 72 96 137 126 123 102 69 61 45 42 44 47 87 139
-40 -41 8 61 119 154 108 -36 -16 -14 -10 -9 9 -5 -10 2 -3 0 -47 -33 -36 -49 -52 -47 -36 -28 -10 2 24 42 52 54 49 45 47 56 73 97 91 74 63 57 57 57 86 92 113 128 143
-48 -54 4 94 153 13 -22 -50 -42 -16 1 7 7 42 -23 -39 -9 -35 -23 -43 -39 -42 -51 -42 -16 4 12 24 49 64 73 79 89 75 70 47 46 48 62 64 59 58 56 62 73 96 109 117 107
-34 -9 103 125 81 -7 -65 -65 -37 -13 -4 -2 -9 -18 -30 -22 -28 -8 -10 -26 -30 -33 -32 -10 1 3 17 30 35 47 61 73 71 67 58 50 45 50 52 62 62 62 63 73 90 108 117 110 96
0 -12 94 70 11 -39 -40 -50 -31 -12 5 -13 12 3 -15 -46 -11 -6 -8 -17 -32 -21 -23 -8 -6 0 14 18 29 48 61 64 54 37 28 35 48 47 46 52 53 58 57 52 40 53 65 80 91
22 32 30 1 3 -7 -29 -50 -3 0 -5 -20 32 16 4 -9 -14 -5 -14 -24 -26 -12 -5 -3 0 4 15 12 17 22 32 44 36 15 6 23 29 24 19 16 15 20 31 41 46 57 63 64 73
30 30 8 -6 -3 7 -27 -12 0 4 13 11 3 6 6 2 11 0 -23 -27 -15 -13 -4 5 4 8 16 16 30 25 21 28 33 30 32 38 35 28 26 16 22 30 39 45 45 51 58 67 70
53 37 42 23 5 2 -18 -2 11 11 6 11 7 6 -2 91 83 53 13 -13 -16 -9 -6 -4 11 27 37 29 23 16 16 29 37 41 41 38 33 29 28 35 35 39 43 51 54 58 66 65 71
29 46 38 -16 -17 -15 51 61 59 47 32 36 33 1 12 137 120 84 44 21 17 16 9 7 26 44 49 35 33 25 15 22 28 34 39 38 42 37 33 36 42 46 49 58 62 63 59 56 62
65 37 9 49 35 33 42 48 64 46 29 35 38 42 84 129 104 77 36 21 35 21 16 34 38 42 37 20 22 23 25 34 41 47 51 59 57 53 52 49 48 50 53 45 47 47 47 49 54
62 41 17 15 15 12 14 31 29 48 23 11 13 75 110 108 110 75 35 19 31 50 44 44 29 29 24 21 38 46 35 32 39 50 59 59 62 66 71 73 73 71 68 66 67 61 49 40 39
41 30 24 18 14 14 12 27 25 42 23 -4 18 79 99 89 80 59 33 5 20 28 41 39 26 46 54 41 41 43 38 39 40 52 63 72 74 80 90 98 101 100 95 93 92 85 79 68 57
11 0 6 -5 -9 -3 5 6 10 7 3 13 34 72 83 72 79 48 30 23 32 42 49 58 49 53 63 50 46 38 31 27 33 51 60 63 68 76 79 79 85 90 100 101 101 102 99 91 81
17 1 0 16 21 4 -4 -17 3 20 -4 6 2 31 51 30 38 54 30 26 28 49 63 98 87 68 62 52 51 38 44 40 32 39 39 49 72 75 79 76 73 73 86 91 102 102 105 97 91
18 14 2 26 47 28 9 9 39 -15 -2 -2 14 -8 33 11 -3 -17 -9 -8 8 48 86 96 90 85 60 48 52 51 67 59 44 47 37 35 59 83 95 103 97 87 96 101 102 102 100 96 98
45 5 24 19 -4 11 6 10 -23 1 26 2 -42 -35 4 -2 -17 -13 -13 4 32 62 113 121 98 77 62 51 48 69 79 71 68 60 51 42 58 99 135 145 142 136 132 140 137 130 130 115 113
-4 -8 -5 4 12 20 9 44 44 16 17 -6 -5 3 28 16 -5 -9 -4 38 59 65 90 98 101 91 77 82 78 89 84 77 72 77 84 83 97 107 151 173 170 178 191 194 203 191 180 158 130
-21 -18 -19 -18 12 11 15 30 66 91 96 110 64 39 56 73 44 34 41 40 39 59 82 82 81 90 85 108 124 124 111 88 78 84 86 82 95 126 154 164 148 157 194 205 228 224 208 213 204
-11 -7 2 3 8 3 25 57 64 127 135 112 67 65 75 88 65 56 58 14 -8 15 33 63 96 94 100 111 138 152 136 127 123 117 98 114 114 127 142 144 136 135 162 171 228 271 285 265 277
-12 11 1 -1 22 29 34 71 92 93 116 73 54 50 50 58 59 35 51 58 82 101 76 86 88 110 137 161 164 164 158 165 158 133 105 117 113 125 121 112 114 116 145 172 191 223 268 305 280
10 10 -14 -16 14 37 50 76 112 109 110 87 58 56 68 79 79 105 98 105 99 99 126 134 166 193 208 210 200 188 138 118 123 110 121 110 85 101 109 105 99 96 125 144 162 197 225 253 312
0 5 8 22 37 47 71 77 110 121 120 93 107 105 84 104 103 110 121 118 161 202 222 209 202 206 198 173 152 130 112 71 46 66 63 50 73 92 92 99 105 125 141 160 196 232 289 322 297
17 46 47 50 58 72 64 71 114 141 169 205 230 215 168 90 90 123 135 176 221 225 230 214 207 187 158 130 101 63 55 75 75 62 30 61 50 66 85 129 187 213 235 296 343 381 454 460 516
42 47 63 77 94 74 68 76 170 249 247 198 122 119 105 80 100 145 220 230 199 195 186 152 141 146 128 77 49 27 112 155 152 98 43 48 67 97 150 191 237 285 336 366 349 363 341 361 363
33 34 59 67 75 66 64 120 133 191 228 166 142 101 52 26 50 108 108 94 110 106 86 101 83 43 34 52 154 156 129 112 84 59 62 77 100 144 168 187 219 198 234 248 234 179 215 226 186
23 48 29 59 57 57 67 105 83 100 155 80 38 45 55 67 101 96 98 69 65 84 75 63 72 92 130 168 163 135 126 87 56 46 76 102 112 168 208 233 212 183 159 144 139 97 -6 -138 -219
55 46 49 61 55 40 59 63 84 105 165 84 14 27 39 76 92 115 85 61 61 75 63 80 119 137 143 133 110 101 69 35 26 39 59 85 159 219 239 242 214 157 117 70 68 55 27 -10 -13
67 78 87 66 62 60 66 53 113 105 108 81 14 10 62 78 89 61 43 48 55 76 102 95 111 132 139 141 138 126 60 8 1 44 91 158 226 229 248 250 258 244 185 118 73 62 47 28 16
79 90 81 77 72 115 166 181 77 80 50 23 15 56 68 58 44 7 28 74 80 87 81 92 123 184 185 185 136 63 48 87 69 76 164 203 224 248 254 282 196 58 35 94 97 87 73 62 57

GFSSGP_con_3kmhel_018.txt.gz
Helicity
-5 -13 -35 -7 29 45 117 134 62 45 26 -29 -38 -32 5 -8 -1 67 24 28 6 -8 -14 -5 -15 10 19 23 12 23 24 26 41 59 78 101 131 143 141 125 117 93 96 94 91 82 77 105 112
-9 -23 -18 5 14 73 149 52 55 29 23 9 -3 -8 5 33 13 41 31 1 -16 -32 -39 -32 -21 5 10 13 29 35 38 40 59 75 88 106 95 86 101 87 58 60 60 61 75 77 116 139 153
-28 -37 3 21 16 99 134 21 44 31 -9 -31 11 7 4 31 19 34 8 -14 -31 -37 -28 -8 2 11 11 21 37 51 63 75 73 63 62 75 77 81 74 79 61 42 33 44 68 83 94 112 98
-32 -22 -15 -23 147 101 66 42 19 5 3 -10 13 53 27 -3 12 -12 -15 -27 -16 -11 -2 -2 -11 10 19 33 51 55 59 71 81 81 79 73 71 71 75 75 73 68 67 74 90 101 103 95 94
-41 -47 11 63 102 64 31 20 5 18 9 11 -5 21 25 1 -30 -20 -16 -12 -1 0 1 10 0 15 34 43 50 63 70 76 70 61 46 41 48 53 60 50 40 41 44 50 58 64 74 82 84
-33 -65 3 69 87 34 14 -19 -20 -8 9 23 24 29 17 -3 -3 -6 -1 14 8 8 5 15 7 6 7 15 18 27 42 50 55 47 35 34 45 53 54 51 52 51 49 47 54 62 75 86 84
-14 -17 51 60 55 32 18 -17 -1 18 17 10 24 5 17 21 -6 -9 -3 -2 -1 0 9 14 15 16 8 8 24 19 16 21 27 28 29 34 44 44 46 47 48 42 43 45 47 55 56 57 55
-5 16 26 42 16 48 4 -7 0 -3 21 20 13 -12 15 12 12 6 4 3 3 2 12 12 9 10 6 26 30 19 17 24 26 27 31 37 33 32 35 23 52 43 41 45 53 56 57 55 54
-14 4 40 41 17 32 -1 -4 -2 9 16 14 2 18 1 51 35 13 -11 -14 -3 -4 5 0 8 11 15 14 28 28 21 18 21 28 32 24 37 40 32 69 45 47 49 47 45 46 47 35 43
6 16 55 29 10 20 4 22 10 46 33 33 22 4 10 62 43 26 27 24 15 13 8 14 4 17 13 16 17 20 20 17 19 23 25 26 43 55 50 67 65 60 58 51 48 50 32 8 41
61 61 49 10 5 24 23 30 29 27 22 0 11 12 47 45 38 28 19 21 14 12 5 1 3 7 0 10 10 16 15 18 23 23 25 39 34 43 42 51 51 56 61 49 41 40 42 61 53
81 25 22 9 17 24 27 20 23 22 -19 1 1 15 42 36 27 16 15 20 21 11 -1 1 -2 16 27 18 18 7 4 7 3 11 21 30 33 43 46 51 52 42 54 56 51 58 64 52 45
8 3 17 5 3 20 32 24 21 17 -3 -7 -2 19 28 18 20 18 13 14 6 -2 -2 11 25 27 31 24 16 9 3 13 11 10 18 14 15 29 35 47 49 56 51 46 43 43 46 49 45
8 -2 -2 -4 1 4 26 6 33 29 36 -1 1 25 31 16 21 27 15 -4 -16 -9 5 22 43 52 50 34 29 18 20 28 30 25 19 13 9 21 19 24 28 35 49 52 57 55 59 64 71
-9 -17 -14 -4 -1 2 22 6 9 53 25 23 -2 9 19 19 21 15 3 -10 -20 -18 -2 26 47 55 50 45 35 23 43 48 44 29 25 20 10 2 14 26 31 37 54 55 51 56 63 59 68
-6 -5 -1 21 19 28 37 51 61 26 21 8 10 -11 16 20 14 11 -5 -21 -19 -11 15 34 67 73 66 56 56 49 54 69 60 51 49 44 35 30 32 35 44 53 68 72 67 67 69 66 59
-4 -3 12 15 30 28 30 37 77 10 -1 -6 -5 -16 -14 8 29 26 5 -7 -8 6 29 54 74 81 81 80 78 80 84 81 79 71 66 69 65 62 65 73 77 83 89 99 106 100 102 97 94
12 2 1 16 22 29 29 45 49 34 37 29 7 -2 2 26 68 50 13 11 25 31 27 60 76 111 115 92 92 88 96 102 94 86 96 99 88 80 85 85 85 108 103 89 86 91 109 132 122
6 -3 5 18 32 48 41 41 76 73 85 97 65 47 54 103 88 72 72 78 90 71 59 103 131 143 128 119 115 116 133 128 110 105 126 114 126 99 107 128 126 125 119 103 96 100 105 115 140
4 0 16 16 25 25 35 51 90 116 134 130 106 98 85 107 139 175 157 155 135 94 109 122 151 159 137 122 128 122 129 144 145 133 149 147 139 113 112 125 97 92 98 93 93 94 117 137 148
14 22 27 16 13 26 30 64 84 105 125 116 121 112 156 197 190 161 156 136 119 124 131 137 175 163 154 139 132 139 131 129 148 135 113 125 113 104 123 101 102 94 88 96 97 111 120 149 169
20 32 14 2 14 52 46 96 109 110 133 136 147 159 166 149 122 118 109 115 137 165 172 186 179 164 147 147 144 150 167 190 182 132 81 58 86 127 76 60 69 79 94 100 107 137 162 176 180
57 30 28 28 23 39 65 55 110 103 148 164 205 209 172 140 130 112 108 126 138 157 165 157 141 152 139 106 90 116 130 108 81 74 97 131 123 101 65 68 63 77 105 137 175 189 206 237 242
27 21 29 37 46 59 82 81 112 112 135 159 192 211 167 137 100 83 96 110 127 122 139 134 133 119 96 114 119 96 71 84 142 183 153 140 119 74 63 73 57 94 149 219 272 239 298 326 358
32 22 38 50 61 105 68 53 195 146 140 154 181 161 118 96 80 71 96 148 169 171 153 129 116 110 91 49 17 -16 121 152 173 166 151 123 81 63 52 86 115 153 188 179 163 220 249 257 250
36 45 66 68 71 73 44 81 89 106 160 178 123 92 75 56 34 99 153 165 131 95 73 57 52 38 48 79 145 162 165 169 164 149 115 90 57 10 83 82 124 159 189 260 230 184 165 146 79
30 51 41 53 53 38 79 85 80 113 155 177 143 73 26 24 60 110 119 102 60 41 51 70 85 103 119 135 167 159 148 136 113 73 32 4 7 56 78 148 210 263 216 163 136 109 97 62 68
62 52 38 56 68 45 59 48 33 58 60 103 126 80 40 24 60 120 93 80 68 93 117 148 135 116 102 131 163 156 134 122 80 28 19 38 59 93 125 185 203 225 217 207 120 102 85 78 55
59 65 75 71 72 65 38 28 181 88 112 105 66 60 61 101 131 111 94 69 63 101 116 132 117 112 139 166 154 116 94 75 57 64 95 113 119 133 139 152 185 187 161 1 -22 67 116 86 64
92 105 102 89 82 110 129 70 91 41 81 50 98 91 103 96 117 128 102 75 78 108 106 135 162 144 136 118 107 86 92 95 105 96 131 133 111 105 113 136 170 152 64 61 102 111 106 89 75

GFSSGP_con_3kmhel_021.txt.gz
Helicity
-32 -30 -33 -33 -7 -67 131 51 73 53 64 60 27 11 98 99 94 109 110 53 55 48 34 44 63 49 49 40 31 20 40 63 77 92 93 91 98 117 125 103 82 94 99 102 90 97 92 85 82
-24 -46 -43 -47 -51 -6 90 20 22 98 77 28 16 -5 32 92 60 73 53 51 47 34 40 32 34 45 40 32 31 37 42 48 62 82 90 99 101 100 94 78 73 79 78 81 84 86 89 82 86
-11 -33 -68 -36 -71 48 98 -1 113 53 12 -1 36 45 26 62 58 110 68 41 34 31 33 28 25 29 30 39 38 57 71 85 94 96 83 75 82 75 76 74 68 58 56 56 66 77 69 72 71
-14 -21 -36 -94 121 82 46 67 45 28 18 -10 23 72 47 81 53 77 48 40 27 18 40 29 33 44 46 51 61 62 64 66 61 54 39 43 46 55 61 59 62 63 60 65 65 67 71 70 77
-62 -70 -49 39 80 42 45 39 -4 3 20 23 -28 74 63 57 74 41 34 17 22 37 37 38 38 32 32 34 49 56 56 46 56 63 64 56 58 66 73 72 78 79 73 69 69 70 69 64 61
-71 -74 23 39 48 31 27 16 -6 9 24 30 12 40 56 43 45 27 16 26 30 39 45 30 26 27 35 41 41 46 39 39 41 49 53 60 64 71 74 79 79 77 74 71 66 56 58 62 61
-69 -58 47 67 26 21 48 -9 -8 10 19 9 10 46 35 17 -2 -7 -2 13 22 39 34 47 45 43 32 34 37 37 34 34 35 38 40 45 56 61 69 80 81 77 74 70 61 52 49 47 47
6 34 45 24 -1 72 44 -8 22 -24 61 64 62 40 2 25 2 1 3 32 32 26 40 56 39 44 37 49 46 42 38 33 29 32 29 30 34 37 41 52 71 60 57 53 48 42 37 35 35
-48 -29 17 16 20 49 18 24 14 47 29 30 25 44 33 27 16 14 3 23 37 34 52 31 32 24 19 17 35 35 33 25 26 30 24 8 23 38 48 107 79 63 58 54 47 37 27 19 14
-60 1 75 42 29 25 5 12 -0 38 -4 -3 -4 9 55 19 9 18 28 34 31 36 33 37 23 25 8 8 12 31 34 34 34 41 29 31 46 60 43 64 62 43 42 40 26 27 17 -6 32
-20 71 59 33 37 -1 -10 10 16 14 16 -18 -6 4 55 42 37 26 25 36 34 35 20 35 26 9 -13 16 -1 8 12 21 26 12 18 31 26 51 33 56 57 55 41 26 44 40 26 114 71
27 44 4 5 24 44 15 -8 16 36 54 31 7 41 61 40 31 31 19 32 23 36 21 24 23 18 10 -9 -1 13 9 26 16 57 29 33 31 45 42 38 42 40 63 73 42 56 67 47 41
14 4 8 -7 4 30 32 7 24 -1 23 10 10 36 45 49 41 33 7 5 20 21 28 36 38 32 36 22 7 9 7 32 55 49 62 37 30 46 36 39 18 25 29 33 42 46 47 55 50
15 -3 -4 -4 -1 -2 25 -17 14 45 10 21 31 14 30 27 26 27 8 11 15 25 31 34 34 36 43 22 37 27 35 49 59 86 95 62 43 46 29 30 21 9 22 31 50 51 50 46 49
-7 -14 -30 -13 -11 -3 28 -6 14 49 33 13 21 8 11 31 18 28 20 -0 8 15 16 26 34 61 67 59 54 54 74 62 72 83 71 55 41 49 43 38 37 28 41 39 38 42 48 50 52
8 17 18 2 -12 14 29 40 76 32 26 14 32 24 9 27 26 40 23 14 5 -4 12 34 57 80 79 89 96 90 97 79 71 69 71 76 69 63 54 49 53 49 55 50 59 59 64 71 78
2 26 16 32 17 21 11 50 70 46 25 3 -9 40 46 8 33 28 43 23 5 8 20 44 78 72 96 132 101 122 109 75 69 98 79 131 110 109 98 86 75 79 73 72 81 76 79 77 73
26 6 28 31 61 14 7 -1 74 59 21 27 35 13 16 19 40 73 71 62 63 80 55 74 83 92 177 168 114 95 96 82 93 94 121 177 113 149 119 106 102 105 106 109 112 104 80 89 92
69 27 20 45 55 36 45 35 98 64 60 76 68 49 48 29 147 226 168 103 98 83 110 112 124 176 98 142 149 128 118 144 113 142 234 162 181 150 114 107 102 101 127 136 119 92 78 86 86
22 22 34 26 39 37 43 40 85 91 110 121 117 103 118 169 208 179 173 182 184 151 115 119 137 129 157 154 151 120 131 129 150 97 223 190 265 148 148 168 127 121 162 141 116 90 94 105 103
39 60 56 42 24 1 12 69 80 95 104 118 184 219 208 165 143 174 183 161 137 142 152 171 167 183 185 153 153 158 112 105 130 199 163 144 103 124 143 134 159 145 137 123 108 114 117 119 106
40 62 28 13 7 1 26 68 146 137 135 133 138 153 162 147 150 150 129 115 110 128 140 159 180 183 167 148 149 101 94 91 149 115 166 195 107 103 144 143 144 138 95 91 83 88 176 194 131
88 39 24 20 18 19 43 5 192 109 135 156 187 203 185 171 159 132 105 99 120 125 147 162 142 137 122 97 80 87 104 148 133 121 134 236 142 179 145 148 139 116 66 84 93 179 183 205 252
21 10 18 16 33 57 91 27 88 113 176 127 167 156 179 182 117 86 72 50 66 126 158 110 94 87 84 95 126 151 123 82 85 111 138 168 183 138 135 144 143 76 36 101 232 233 199 171 208
10 14 34 37 54 59 97 42 159 171 161 203 156 127 160 141 100 69 61 86 135 143 114 84 86 84 92 92 75 70 72 92 105 147 174 173 146 131 105 120 65 46 229 231 213 195 174 118 128
16 15 54 63 80 75 64 53 131 110 107 101 109 122 132 123 76 35 47 67 107 130 102 75 44 50 104 140 161 159 161 159 152 171 159 124 112 100 61 56 138 216 227 197 160 166 70 56 85
39 51 39 38 53 52 60 117 81 110 93 94 110 90 144 90 49 65 105 105 129 131 108 97 84 108 134 155 193 173 138 130 144 138 76 58 43 56 80 181 202 204 299 283 205 144 89 83 50
33 52 29 59 66 64 65 55 75 113 71 89 99 152 87 80 72 94 95 106 117 135 123 113 94 115 157 148 133 142 154 144 139 85 103 111 105 151 179 152 118 237 203 175 116 88 47 103 117
54 48 50 63 95 97 87 70 119 173 158 185 114 109 84 91 86 86 98 128 135 140 152 172 164 165 122 142 158 159 144 158 130 128 118 108 118 155 125 121 184 166 157 140 87 69 69 100 118
56 85 83 100 112 110 116 70 145 121 111 71 54 65 97 65 68 68 90 150 167 195 188 175 143 145 146 152 152 114 111 125 127 141 202 168 170 93 84 144 148 157 153 122 79 64 86 122 166

GFSSGP_con_3kmhel_024.txt.gz
Helicity
32 66 85 85 15 -28 -67 70 97 94 75 56 114 65 106 120 74 191 101 130 146 55 50 55 59 51 57 63 76 60 56 61 76 89 88 84 83 85 88 90 89 91 93 89 88 77 60 52 53
46 116 73 10 -46 -91 56 81 135 192 114 75 52 57 88 100 39 55 114 61 71 112 46 65 80 81 88 75 68 66 66 67 74 75 74 77 80 78 81 80 74 71 76 73 77 65 66 72 71
37 130 -31 -44 -43 -28 181 94 180 26 -12 47 31 95 153 53 116 153 72 84 123 79 63 73 87 76 70 70 71 70 72 83 83 70 60 51 51 60 65 68 69 76 84 87 73 66 62 58 63
-11 -14 -8 -114 -39 71 58 98 50 69 55 -18 77 71 130 76 139 121 61 86 100 78 58 52 52 57 74 81 88 92 97 93 100 98 85 75 71 66 64 72 76 75 66 63 57 58 59 63 63
23 -83 -52 -18 110 83 66 53 16 36 -4 35 37 166 159 150 141 61 55 35 105 62 36 38 56 78 85 83 71 66 67 60 62 64 61 63 63 60 65 68 68 72 73 62 59 55 52 49 40
-48 -37 -10 32 97 52 39 27 -9 25 66 41 81 133 130 101 87 72 49 71 58 61 43 47 64 64 58 56 45 47 40 35 39 39 40 44 44 53 63 67 72 72 68 65 63 54 48 41 34
60 -55 14 167 82 71 86 -8 -13 34 49 48 39 108 59 73 57 -1 33 53 46 52 60 40 41 41 39 22 38 42 35 34 36 32 29 36 39 46 52 66 71 68 70 69 64 56 47 38 28
191 22 -16 51 10 116 82 -23 52 22 99 99 66 57 82 111 2 14 42 29 52 45 33 40 38 -5 10 12 39 34 33 31 22 16 18 14 11 11 40 54 58 59 56 52 47 38 30 14 14
113 -17 35 20 31 98 47 30 40 91 69 85 63 42 132 61 25 41 38 20 61 42 61 37 108 70 59 35 13 17 26 20 20 7 19 32 4 12 38 50 53 37 26 32 26 12 9 7 -5
-16 11 150 78 48 51 -5 34 45 -9 25 46 37 84 130 45 36 38 21 22 48 60 19 61 46 49 -5 34 54 7 12 2 -3 16 23 36 47 59 35 82 61 33 15 31 31 6 13 28 59
-9 79 79 119 48 29 18 41 -1 -3 -0 -46 28 98 112 56 54 40 28 46 40 46 20 122 92 19 -20 13 -15 24 32 46 42 71 46 47 20 52 45 71 55 53 54 45 40 67 57 43 67
32 18 24 116 96 55 -3 17 40 8 77 27 89 61 102 66 41 30 30 75 63 95 105 146 60 32 2 -12 6 16 23 59 51 68 76 49 42 69 52 56 42 17 31 38 39 51 56 65 87
47 35 64 25 33 65 54 10 17 35 73 62 39 54 96 67 41 31 11 44 47 72 98 129 130 45 32 21 30 31 31 67 72 92 97 66 47 78 65 58 46 34 32 48 64 84 64 64 81
22 -2 -15 -24 -7 -2 4 -4 -5 25 58 18 29 37 53 63 46 43 6 21 50 69 90 117 175 67 64 33 90 55 57 87 59 123 121 89 78 84 50 66 55 48 54 64 72 76 86 84 87
9 -9 -8 -16 -17 -19 7 -15 23 84 27 41 59 4 37 56 18 74 36 9 22 37 56 120 143 143 137 88 96 72 139 116 111 136 107 102 89 87 85 72 65 53 78 85 77 68 100 102 105
14 26 -24 -36 -36 14 -7 4 49 91 63 21 40 43 -1 35 45 78 53 12 20 30 157 -2 86 153 170 69 150 108 150 136 107 117 122 121 135 111 114 108 113 108 102 98 87 95 89 111 115
-15 12 4 -16 -21 44 -6 28 94 57 36 5 -10 56 71 -15 65 70 81 37 48 101 135 134 102 184 145 88 148 173 156 123 83 167 144 207 248 172 166 153 147 142 153 141 113 115 126 138 130
58 -13 53 32 79 9 -1 -48 43 115 85 12 20 3 62 57 22 194 257 193 215 150 134 114 193 269 243 224 160 118 126 95 89 132 161 246 192 212 219 161 139 129 127 141 144 143 143 154 137
112 95 30 42 100 33 9 5 103 133 23 29 33 48 82 241 233 284 288 312 244 154 208 279 231 179 139 146 178 195 240 241 239 212 209 266 183 190 205 171 158 163 171 200 220 193 176 162 145
74 79 31 68 69 21 34 -22 158 151 95 78 101 99 178 201 178 170 237 307 262 209 182 174 164 185 185 224 174 145 153 134 136 112 157 196 112 205 197 210 182 163 178 170 146 169 192 180 142
10 51 98 68 39 8 -7 2 170 171 100 208 270 213 189 159 140 139 193 203 165 167 147 138 151 159 166 204 220 168 125 142 154 200 193 166 268 223 196 173 172 182 175 165 139 136 141 179 149
64 95 44 25 21 4 99 27 130 143 160 158 199 231 198 191 222 201 139 108 106 114 132 130 163 190 171 144 154 146 134 176 193 207 213 205 212 174 230 190 170 162 171 150 120 175 235 264 217
103 47 37 28 20 24 17 30 169 146 134 167 214 220 191 204 210 138 117 113 112 100 95 109 114 104 95 74 89 90 124 124 142 166 155 160 180 194 173 162 158 165 171 155 273 328 306 230 162
30 21 14 11 17 58 -26 31 147 32 123 155 207 210 166 147 119 114 68 29 -5 -8 24 93 107 139 135 134 102 69 58 79 128 127 162 193 181 141 117 109 120 113 159 241 243 200 184 114 130
-3 19 31 41 39 45 80 45 145 220 222 260 279 167 121 131 145 157 156 163 136 118 72 81 113 101 100 154 165 214 260 236 223 201 202 184 100 88 78 57 77 145 188 244 266 257 194 117 105
6 3 33 48 73 66 -1 61 180 182 176 152 122 102 118 113 82 73 73 78 111 138 200 188 164 135 119 164 242 203 215 245 233 202 167 116 126 110 67 180 200 229 265 266 262 177 102 66 55
28 57 34 40 59 57 28 127 168 155 141 86 66 61 130 105 98 41 117 99 137 141 155 155 142 152 198 219 200 168 213 177 189 189 138 130 93 77 153 137 160 228 235 234 135 100 103 93 89
15 30 38 72 81 87 62 61 91 88 66 46 81 216 196 151 152 112 129 165 190 184 216 202 235 251 279 279 262 225 216 217 183 143 86 113 162 168 154 201 226 165 134 176 125 97 84 76 83
45 69 62 64 121 129 110 109 102 94 92 135 193 138 143 125 106 127 150 187 166 146 152 190 211 255 282 274 235 174 162 134 155 190 226 211 166 160 156 155 136 136 167 139 124 94 85 74 81
39 46 59 128 117 184 164 98 120 98 112 161 120 129 128 108 141 192 175 155 183 178 261 239 278 333 288 215 140 158 151 260 270 218 176 138 96 121 123 101 88 79 81 71 67 108 67 51 87

GFSSGP_con_3kmhel_027.txt.gz
Helicity
25 54 81 46 30 1 39 28 196 164 181 48 17 59 80 98 96 122 56 124 74 80 86 79 72 78 71 81 90 80 70 62 62 73 76 74 73 79 82 85 89 85 77 67 62 62 60 56 48
33 68 55 52 7 31 146 77 162 102 37 118 48 5 102 145 126 126 111 86 85 80 94 87 78 73 83 96 78 73 72 77 78 80 82 79 80 84 83 82 79 79 80 77 69 63 61 57 55
42 53 41 -31 -5 133 61 109 91 63 19 52 112 241 79 59 68 126 150 104 89 76 60 63 80 92 94 78 81 87 100 105 97 95 80 64 63 60 55 51 46 54 59 63 62 61 58 56 54
83 44 53 -12 167 114 151 68 84 93 136 138 122 134 210 130 105 174 160 90 75 48 40 58 60 53 59 76 97 107 101 90 78 65 61 56 46 41 43 46 42 43 45 40 41 38 38 37 30
84 71 -66 66 45 58 43 1 36 111 86 110 166 149 146 131 123 169 96 63 89 54 34 31 41 61 81 85 76 66 54 45 45 49 49 52 50 49 55 56 54 52 48 48 47 42 33 26 20
59 25 10 156 89 71 96 13 23 94 81 81 126 153 31 43 111 119 68 49 32 19 3 15 40 56 51 39 35 37 35 39 42 47 46 45 46 53 58 56 55 49 49 45 40 33 29 26 20
-5 7 102 162 62 204 115 71 76 33 152 53 82 46 61 115 42 91 15 22 28 1 1 -13 4 19 21 21 20 23 29 30 36 38 36 29 36 39 36 39 44 49 45 41 34 28 23 19 12
1 60 190 118 121 181 98 106 89 110 130 -10 82 74 128 62 41 71 46 9 10 -4 -4 -8 3 -13 -11 -27 13 23 25 20 10 17 18 24 27 14 20 39 35 33 31 36 32 22 19 32 32
-24 117 60 11 192 89 88 143 48 64 127 133 83 149 172 69 85 81 57 19 4 -33 5 29 -7 -21 -17 -45 -19 -11 1 2 -15 14 -2 -2 20 2 35 30 33 16 27 14 7 6 16 18 24
71 13 112 107 30 24 40 86 32 90 97 139 202 187 108 56 98 76 41 54 45 94 70 45 -4 -10 11 9 8 -1 -21 -33 -40 -13 -5 -11 -2 5 31 49 40 14 30 18 -3 7 9 25 46
-22 46 57 141 1 16 83 19 5 29 89 128 120 107 57 82 81 55 9 37 65 94 123 141 57 42 17 47 18 18 -18 -28 -13 -10 48 36 41 45 63 56 38 42 30 30 22 24 44 54 69
64 69 33 80 187 118 40 -16 -17 20 13 98 167 131 60 51 38 9 -3 50 104 114 210 170 108 69 27 27 38 30 55 52 81 73 73 74 70 79 96 64 48 35 17 35 39 45 47 57 56
65 78 73 57 206 207 51 21 38 61 89 71 142 139 79 40 30 -3 50 118 119 181 253 238 158 98 58 57 38 53 105 111 107 118 115 108 105 91 76 55 38 20 31 57 68 65 61 54 46
74 38 14 19 32 48 29 20 20 21 71 77 118 92 90 113 74 11 -10 139 132 154 263 222 213 131 70 65 74 52 89 87 140 144 122 123 127 94 87 71 66 62 81 76 69 60 58 66 81
-41 15 -3 -6 -36 -31 10 11 -46 62 86 119 79 111 111 88 70 63 19 118 83 172 332 131 249 146 51 75 115 95 86 114 149 150 147 132 149 142 117 113 104 91 97 98 87 71 67 70 83
11 10 33 -29 -72 -37 39 -27 -3 86 94 113 87 55 100 65 56 100 68 144 152 147 228 184 264 269 -81 44 126 134 144 135 124 135 146 165 191 179 153 140 101 80 114 119 113 99 83 86 84
-5 30 13 -35 16 11 30 35 103 55 54 36 49 60 25 60 127 197 299 289 272 218 174 184 169 29 -8 162 194 165 148 121 114 136 202 247 302 275 213 160 119 105 113 117 114 111 100 123 113
32 5 42 59 48 24 2 -26 122 131 130 70 55 8 291 360 413 507 497 442 333 265 303 333 263 242 197 214 180 160 177 166 153 197 228 250 213 199 195 212 187 167 134 123 127 120 100 101 113
50 82 78 128 98 40 16 26 148 152 120 89 261 259 334 453 386 538 575 530 416 251 270 282 303 276 261 227 179 182 217 213 178 161 148 164 208 257 291 185 180 189 163 140 130 110 117 130 117
69 68 94 31 60 37 78 42 91 195 253 253 226 166 189 221 297 332 363 385 397 316 224 192 188 159 201 230 208 205 192 185 199 259 304 310 296 281 275 288 262 225 190 155 126 108 111 117 142
130 78 113 111 66 13 9 104 206 221 293 435 275 126 89 84 147 195 214 224 253 260 206 149 108 100 136 185 192 193 197 192 174 176 149 158 206 240 282 258 208 196 147 142 138 167 188 141 134
96 82 55 48 51 33 60 91 259 304 329 411 410 324 241 161 92 51 72 138 153 138 121 105 77 77 101 120 141 148 125 125 92 93 120 195 250 253 198 144 112 84 96 116 135 186 151 115 89
47 37 27 31 37 55 53 89 189 315 314 303 278 263 208 186 129 73 69 67 50 53 47 44 120 124 83 71 70 79 86 66 65 122 199 197 158 130 90 74 93 102 87 92 107 114 99 89 110
22 55 56 90 86 81 51 63 230 221 238 359 298 239 196 142 102 81 75 36 -30 -58 -28 34 73 95 131 159 174 194 198 181 217 205 156 113 61 40 56 71 55 64 95 120 124 150 164 144 153
23 42 54 64 56 51 19 95 109 262 293 351 401 333 226 177 145 128 130 81 49 93 109 102 125 111 138 170 213 222 252 278 249 210 164 135 93 54 65 68 95 79 106 129 163 161 188 158 99
19 38 42 48 57 30 40 73 136 285 298 214 188 85 70 76 75 74 137 132 151 191 198 189 184 220 248 249 275 257 244 213 166 134 84 114 114 90 75 80 105 123 139 165 163 115 68 -14 47
1 38 28 62 36 50 52 98 168 120 103 26 49 109 82 103 139 128 200 277 275 237 196 178 197 260 327 349 340 296 240 181 128 79 152 174 161 119 117 139 155 146 141 127 92 104 103 92 76
19 14 42 40 58 42 88 106 68 85 100 78 134 140 125 200 230 231 205 250 184 158 143 159 214 308 349 331 291 231 185 201 208 247 217 172 128 115 135 143 127 133 132 115 105 99 71 92 117
17 56 51 62 129 122 80 81 28 86 86 89 187 157 194 201 224 185 215 208 175 202 200 179 264 330 331 319 270 210 162 183 205 197 188 124 104 134 128 97 123 97 72 57 72 68 76 67 78
33 73 108 113 81 151 181 84 26 227 210 136 180 162 142 167 153 164 186 209 277 225 184 168 258 254 263 238 204 176 188 195 207 200 185 137 42 55 93 118 125 97 94 90 76 73 88 157 159

GFSSGP_con_3kmhel_030.txt.gz
Helicity
49 60 44 52 27 61 74 35 53 92 134 59 89 115 130 80 98 79 32 32 62 86 74 64 52 64 65 77 98 107 97 87 81 79 77 83 91 85 77 71 66 66 64 62 67 67 62 59 57
51 55 71 47 -10 145 95 76 95 83 -70 -34 69 112 203 131 104 106 69 8 61 110 77 63 66 76 72 89 86 85 87 85 77 77 87 88 73 62 58 59 53 57 59 57 56 51 45 47 46
46 53 44 50 27 88 46 -20 37 40 -43 -33 13 72 44 37 3 1 15 37 77 105 75 64 71 78 86 92 101 100 94 84 87 86 75 62 57 50 43 42 41 43 42 42 42 36 33 32 31
45 71 53 31 108 35 81 96 185 185 187 109 34 117 57 -8 -2 36 20 34 103 67 57 59 66 63 73 86 83 78 84 80 66 58 55 57 51 43 38 40 42 43 36 27 26 22 24 18 18
68 28 65 90 83 35 44 62 166 184 148 109 96 36 17 77 132 67 22 42 80 46 27 20 32 47 64 68 67 66 59 47 45 45 45 46 39 40 41 39 35 35 34 31 28 23 23 21 19
105 28 61 71 298 118 135 52 168 190 154 101 91 61 23 62 105 3 22 41 25 8 -11 3 27 40 41 42 40 50 48 45 42 32 31 32 33 32 23 23 26 27 27 26 25 22 21 24 26
31 43 27 105 2 104 143 102 78 86 89 60 23 43 -7 36 47 5 27 28 0 -21 -22 -17 -17 -2 25 32 50 43 25 22 20 14 18 10 1 -4 5 7 9 10 7 11 5 3 6 17 21
-13 3 93 127 66 108 9 150 84 82 89 55 40 3 -6 25 36 37 10 7 -15 -39 -16 -35 -43 -25 -9 1 4 -12 -13 3 2 5 8 4 -2 -11 -16 -4 -12 -10 -11 -20 -27 -26 -25 -8 4
2 4 164 81 58 41 32 135 114 30 24 61 13 21 97 80 64 48 36 20 23 0 -22 -45 -31 -22 -26 -42 -49 -30 -29 -14 -4 -3 9 3 -26 -7 -2 -8 -15 -7 -13 -34 -43 -41 -36 -16 -10
37 74 73 55 32 150 69 88 84 113 139 147 181 98 104 131 95 90 49 8 0 -6 -29 -15 -17 -21 -14 -21 -22 -15 -36 -34 -21 -9 13 3 -6 3 6 -8 -9 6 2 -26 -34 -31 -23 -3 28
-10 -6 15 59 35 50 88 110 82 146 51 52 72 29 103 131 119 97 56 46 25 7 1 -9 5 -49 5 1 -5 -12 -9 -29 -15 -2 8 15 21 13 4 3 4 4 -2 -1 -11 -12 5 11 33
16 0 71 45 4 38 61 72 38 32 -6 68 93 70 88 119 104 88 59 38 91 78 77 31 19 -15 1 12 32 24 33 29 17 10 40 76 87 76 58 54 38 35 31 17 16 21 24 31 35
72 37 79 115 113 73 73 78 8 22 116 125 127 96 66 87 62 12 43 64 175 186 155 71 91 56 77 51 39 52 63 62 41 71 89 142 133 115 119 111 85 67 58 62 56 51 43 34 24
29 51 59 77 127 75 63 57 49 50 168 205 196 82 70 61 21 -3 41 111 196 203 205 137 104 119 101 68 40 110 134 136 114 124 110 143 146 147 160 155 128 105 96 86 75 70 75 59 49
8 29 38 -3 3 25 55 26 33 65 161 187 116 95 99 96 46 33 60 117 177 265 270 218 249 114 90 170 93 71 111 150 134 116 120 129 141 156 156 150 137 116 120 119 102 101 105 85 59
48 85 -6 -9 -31 -6 27 3 1 77 164 114 96 125 98 52 -46 -55 1 85 230 308 280 335 256 147 64 79 110 62 94 118 114 126 148 157 162 162 160 142 138 139 152 136 124 101 68 64 53
23 49 55 4 32 -3 32 22 -5 24 90 68 88 138 165 210 212 252 310 314 284 310 344 296 175 87 39 74 91 88 137 148 161 178 177 194 204 204 198 194 181 183 201 174 125 117 71 67 79
22 23 30 24 -41 -14 48 35 90 -3 79 124 216 307 395 480 439 485 525 472 427 365 344 316 222 145 89 146 154 185 189 234 244 330 356 336 334 338 316 298 273 284 224 153 149 112 94 83 85
8 24 79 82 26 18 47 119 141 152 227 248 316 422 470 522 465 553 521 427 396 298 267 211 199 159 152 162 172 214 289 318 350 361 345 338 332 323 317 274 275 241 196 159 124 89 69 45 51
55 68 96 100 82 53 93 233 217 214 273 310 357 401 462 431 438 440 370 298 266 252 161 128 80 124 150 140 155 158 144 164 149 169 226 237 246 234 210 209 217 203 185 192 162 114 78 88 78
152 126 95 74 56 49 157 185 205 279 354 343 325 304 355 212 228 239 186 196 196 195 140 82 76 70 92 102 124 147 133 127 131 125 88 83 78 79 102 116 115 111 104 114 108 125 134 131 124
61 77 93 99 65 37 82 176 246 292 367 312 295 272 284 215 159 91 110 153 150 146 122 73 36 21 16 47 63 68 51 58 65 55 52 80 74 57 51 26 20 53 73 107 89 101 105 106 130
17 50 47 44 63 68 110 161 236 280 304 271 214 133 126 -12 -60 -61 -17 6 27 40 42 28 44 40 49 65 51 50 67 113 166 151 149 152 134 113 84 25 50 79 67 69 72 78 92 82 94
62 67 80 92 100 98 102 137 223 272 299 240 180 158 63 -32 18 -3 -1 10 20 13 22 26 54 70 107 134 155 188 225 218 196 181 149 118 91 52 11 56 80 61 65 73 85 107 126 115 99
63 46 47 67 65 58 41 99 180 119 232 228 227 197 100 67 62 46 51 60 36 45 47 81 121 128 164 197 234 274 278 257 218 175 148 145 129 76 104 106 91 61 55 95 118 124 118 120 153
20 23 42 41 53 41 80 108 108 201 302 216 144 115 56 18 36 42 103 145 139 168 177 153 170 186 209 214 257 270 233 181 142 126 111 105 88 85 65 65 79 77 86 94 104 107 97 75 98
5 14 21 34 19 51 84 138 93 113 143 145 122 165 40 111 150 225 243 223 192 191 180 176 238 245 286 242 288 268 218 159 143 152 145 121 76 47 74 77 81 95 99 101 103 98 85 77 61
5 5 15 13 47 88 117 124 112 101 115 132 100 140 132 199 254 238 215 217 210 237 131 158 232 256 260 226 247 225 171 149 128 110 128 144 94 71 97 64 73 89 81 85 85 80 57 67 84
-9 11 31 62 79 99 146 139 87 83 134 145 145 174 196 190 193 307 325 252 222 158 144 192 234 199 178 167 172 167 138 125 145 154 141 188 155 133 135 85 87 77 84 94 110 106 91 86 97
25 46 66 80 78 119 137 145 111 195 199 208 139 202 259 319 352 304 197 170 172 145 200 211 189 169 147 111 113 144 146 129 174 236 203 253 225 190 124 131 131 130 115 111 137 155 168 135 109

GFSSGP_con_3kmhel_033.txt.gz
Helicity
23 17 21 75 38 79 145 106 28 125 112 62 80 70 96 98 67 73 14 -20 44 45 24 30 47 46 56 80 96 99 93 89 90 93 81 76 78 78 78 77 76 71 69 66 70 70 65 60 58
31 62 90 26 57 118 135 47 86 22 12 109 159 86 96 62 44 95 68 25 23 31 31 37 44 67 86 99 101 94 93 94 85 75 82 87 79 71 62 55 49 44 40 38 42 39 39 33 34
25 61 46 60 71 105 119 95 90 30 24 81 42 77 62 41 49 45 -9 10 28 26 37 60 74 81 81 79 78 89 96 94 88 78 69 56 46 36 32 33 31 30 34 34 35 33 34 31 24
9 87 90 42 69 72 57 66 68 43 108 10 -26 100 64 -40 -13 -8 17 25 40 43 48 67 63 68 64 74 93 96 85 63 48 36 39 32 28 27 27 20 19 23 29 31 36 39 38 35 39
74 28 84 80 74 34 81 60 109 83 120 81 57 52 23 -22 56 41 8 16 57 37 40 44 53 44 48 70 85 64 41 33 36 29 20 25 26 18 12 10 12 16 20 25 26 28 32 35 38
31 -3 137 149 222 210 103 77 128 113 68 111 91 74 8 13 61 -6 10 10 9 42 24 18 17 25 57 68 31 24 25 25 19 14 15 14 8 -1 4 6 5 6 7 4 4 8 15 21 29
-2 36 95 38 170 227 189 50 72 84 62 54 52 25 -19 -38 -27 -5 -16 -23 -14 -4 -4 -13 0 37 43 14 15 19 17 14 10 8 -4 -10 -14 -6 -1 0 -6 -6 -9 -22 -14 -10 0 5 9
58 77 114 96 123 143 244 36 24 55 69 72 33 12 -59 -82 -37 -16 -24 -11 1 -12 -26 -20 -4 4 -16 -14 4 11 1 2 -10 -20 -23 -18 -12 -11 -12 -12 -12 -13 -23 -36 -37 -38 -31 -24 -16
1 82 56 106 83 115 -9 13 56 54 114 76 27 42 -10 7 16 30 45 41 24 -19 -29 -31 -36 -43 -34 -20 -22 -18 -27 -25 -26 -21 -14 -10 -13 -9 -5 -13 -16 -12 -23 -35 -41 -42 -48 -48 -39
27 72 38 20 28 22 20 133 128 154 66 96 163 152 88 49 60 68 36 22 -7 -36 -60 -77 -54 -44 -22 -28 -46 -38 -42 -30 -19 -12 4 0 0 4 1 -12 -14 -10 -26 -43 -44 -35 -28 -22 0
46 47 21 10 10 79 97 127 130 156 86 31 127 43 46 70 59 63 10 28 2 -54 -68 -80 -62 -35 -9 -25 -38 -36 -21 -15 -7 10 20 12 15 8 9 17 27 34 27 32 23 16 20 17 23
7 9 -25 10 47 82 47 96 129 41 -40 -12 95 25 43 78 92 75 42 28 -6 -16 -20 -58 -67 -12 -50 -34 -8 -2 22 25 18 27 35 48 59 51 49 62 67 77 65 72 70 62 52 40 35
-38 15 52 48 84 84 91 74 27 20 40 64 107 62 61 81 80 67 61 48 35 34 5 -15 3 4 -19 -12 17 27 37 46 50 51 66 81 98 110 101 88 95 97 93 115 107 84 66 49 43
24 62 94 101 88 76 88 59 24 2 114 155 125 91 99 102 60 16 40 86 82 109 69 66 70 14 19 33 70 44 49 59 67 76 82 82 97 136 132 131 142 145 147 136 133 125 110 89 64
33 110 99 104 93 54 58 58 9 42 126 148 88 93 88 23 -5 11 56 98 116 166 125 135 128 54 81 85 83 58 70 92 74 90 111 121 122 153 172 180 200 190 167 172 172 161 144 109 79
36 31 -20 -51 10 48 49 4 26 89 168 103 65 16 56 57 9 3 -4 82 181 271 229 184 157 200 112 94 106 116 142 153 122 139 162 196 222 241 281 261 249 226 202 172 149 131 103 82 65
69 16 5 -22 -7 27 23 15 39 114 103 142 119 106 153 166 174 126 122 178 251 353 389 382 255 224 114 95 114 189 246 226 245 281 325 381 404 366 327 298 264 225 175 146 146 135 103 81 66
40 21 27 -23 -2 26 16 1 61 139 186 200 193 230 280 308 305 267 306 303 430 478 501 395 210 214 171 147 289 259 252 295 320 349 355 336 318 294 242 224 181 140 143 165 141 114 107 87 82
16 65 30 46 61 56 56 109 180 224 270 308 300 373 464 498 432 429 449 420 422 335 252 180 163 132 168 206 157 205 212 217 226 207 198 190 157 151 136 146 175 147 131 108 102 87 97 81 63
53 35 79 123 121 91 159 204 193 216 255 287 388 457 478 502 506 526 484 411 318 201 159 198 188 140 97 89 88 109 128 122 85 73 93 92 99 103 94 79 68 61 79 108 121 128 129 130 144
91 91 117 93 109 131 167 194 207 203 233 269 304 293 280 261 274 294 247 153 90 81 89 95 60 63 59 65 68 72 78 77 83 112 140 150 137 124 107 78 49 45 61 92 108 144 187 184 153
89 124 120 113 111 106 140 152 201 212 276 240 232 232 182 164 129 74 -5 5 27 26 17 3 -12 0 20 16 39 46 59 68 91 106 89 80 91 91 88 86 75 75 75 93 105 143 144 148 150
54 73 78 82 101 135 174 199 177 230 241 197 211 205 119 2 -15 -21 -23 -2 -1 7 12 -11 19 17 -4 10 32 53 83 123 137 132 131 134 118 110 72 60 47 52 31 31 65 80 94 80 64
49 79 119 124 105 112 130 174 134 173 190 206 179 118 61 -1 42 -25 2 10 -16 39 35 58 84 47 67 112 125 141 143 128 153 141 135 118 111 101 70 74 66 49 44 44 56 73 97 108 98
64 76 71 74 52 40 108 106 128 55 189 141 111 47 0 18 -6 -60 -26 -21 24 83 83 75 119 147 156 191 196 181 176 152 142 135 131 127 108 93 77 51 31 31 39 82 83 92 104 96 106
38 41 39 19 33 66 95 125 100 115 230 111 50 82 101 110 42 48 40 110 134 151 138 149 172 170 195 210 214 180 139 114 124 113 103 95 97 98 73 89 68 82 97 74 83 98 92 90 98
17 30 19 57 51 79 100 139 143 144 226 218 227 256 203 142 142 166 185 229 224 186 142 144 145 168 174 186 153 104 114 144 131 112 115 135 129 161 128 97 105 108 87 83 84 75 66 91 90
12 9 8 18 52 62 77 133 159 151 177 165 140 116 187 210 275 320 315 272 225 166 137 140 150 187 171 177 167 150 112 115 131 163 148 149 117 164 177 119 152 174 120 96 76 64 63 98 84
32 19 27 30 46 73 75 85 111 168 175 136 116 148 259 366 348 275 286 266 212 153 134 117 148 160 170 150 120 128 134 139 133 135 136 161 178 194 188 234 249 249 202 159 83 57 65 103 151
29 35 44 57 47 83 111 104 100 121 173 218 293 301 321 356 341 378 299 223 167 164 148 68 121 163 121 106 107 133 123 142 159 161 182 169 202 187 244 271 244 211 71 62 71 66 106 132 147

GFSSGP_con_3kmhel_036.txt.gz
Helicity
38 26 -1 27 96 75 154 111 87 68 98 78 98 80 55 71 65 44 28 -21 18 -1 -35 -20 20 48 57 63 88 102 90 86 91 103 103 98 86 70 56 49 47 49 44 41 40 41 50 63 77
28 41 38 73 142 155 105 43 47 70 34 81 98 94 110 71 18 51 83 -14 30 6 -22 -15 26 57 69 76 96 86 85 93 93 86 77 60 43 36 25 26 28 32 35 35 37 36 44 48 50
31 39 80 50 108 51 65 43 102 60 78 12 38 76 63 34 8 51 88 18 29 -4 -15 0 28 53 74 87 82 89 106 101 73 48 34 23 18 15 18 21 24 27 28 34 40 41 44 51 50
78 82 79 28 85 41 90 68 76 128 82 104 33 65 -33 -6 28 14 24 8 13 -3 -7 8 25 53 70 78 96 96 81 53 24 16 12 8 6 11 14 12 13 19 26 29 33 37 39 44 42
68 101 117 83 55 38 25 78 115 143 89 91 -14 -4 6 21 44 63 37 14 15 2 -10 9 28 54 65 69 62 53 37 16 10 0 -5 -3 2 4 3 4 10 12 13 20 25 28 31 36 37
97 85 124 129 179 128 156 108 92 66 -15 -59 8 121 66 77 25 32 7 -5 -20 -3 -3 8 26 40 43 48 37 28 13 -2 -6 -18 -18 -13 -8 -2 -2 -2 -2 0 0 6 10 13 15 16 22
46 75 101 193 228 290 201 143 41 108 30 -7 115 79 38 68 -37 8 -19 -25 -37 -17 -8 -8 12 28 36 27 12 7 -5 -10 -22 -27 -20 -16 -10 -12 -14 -8 -2 1 -6 0 2 4 6 10 13
52 71 149 169 357 192 144 144 18 127 -63 109 57 17 42 -19 -27 12 -18 -43 -44 -40 -25 9 11 16 9 -6 -3 -3 -15 -25 -24 -18 -17 -17 -20 -18 -10 -5 -6 -2 6 10 0 -6 -1 1 2
48 81 46 19 -6 82 129 34 -9 28 119 75 22 53 53 75 19 5 -28 -46 -38 -34 -24 -20 -7 -6 -13 -24 -31 -22 -25 -24 -14 -10 -6 -8 -21 -22 -14 -8 -4 -2 7 8 8 1 -3 -5 -4
78 79 33 27 59 22 84 -21 39 58 99 70 101 142 174 72 0 4 -19 -28 -40 -45 -46 -36 -30 -39 -38 -45 -42 -33 -37 -30 -15 -6 -1 4 8 6 6 14 12 17 28 26 28 29 22 24 18
56 89 50 2 58 51 77 44 -32 141 22 21 103 153 80 31 -25 -3 -41 -23 -38 -64 -65 -53 -52 -63 -66 -62 -45 -37 -26 -16 -11 -2 3 18 33 37 38 42 42 44 51 61 70 75 70 60 40
76 21 0 -23 1 18 68 48 55 27 -46 26 129 92 30 2 -8 -9 -2 -20 -34 -53 -39 -36 -53 -63 -83 -59 -31 -27 -10 -2 -1 12 26 35 47 60 59 62 69 76 84 113 113 104 100 93 63
-2 -6 13 22 35 73 104 31 14 -27 6 84 62 61 18 11 1 0 7 -6 1 -22 -12 -31 -39 -75 -67 -39 -23 -14 -10 6 23 39 40 55 69 76 89 124 148 146 141 140 133 125 118 118 92
-14 29 81 58 55 65 58 37 17 -43 64 92 80 39 17 8 -7 -51 -38 -8 26 13 14 4 -21 -12 -18 -24 -15 -16 -12 6 33 59 85 102 108 130 169 209 210 189 173 155 139 131 129 119 104
76 66 111 109 81 81 66 34 -3 14 94 75 30 19 -18 -75 -96 -50 -27 16 50 41 42 88 104 73 46 39 39 18 41 60 75 118 158 162 172 205 236 250 228 199 179 164 147 136 127 129 122
43 64 36 53 43 59 45 8 35 45 115 73 69 47 46 12 -30 -63 -61 -5 55 113 220 260 273 214 169 104 60 48 111 144 172 213 233 229 231 222 232 210 193 161 147 137 125 111 114 114 108
33 35 24 17 7 16 34 28 99 70 112 130 125 116 121 71 39 19 7 8 116 250 358 450 426 404 314 37 133 73 183 226 214 208 206 200 184 165 168 167 154 157 150 146 120 96 95 97 110
24 47 15 3 11 61 59 16 50 111 129 165 175 183 208 182 124 102 134 236 329 426 530 572 530 345 201 247 139 156 189 173 127 115 105 107 124 139 132 145 153 130 115 120 116 118 128 115 120
47 33 46 36 53 68 36 20 43 149 201 181 225 245 260 276 218 224 224 230 338 357 372 337 267 123 26 43 67 87 45 37 57 71 97 132 147 159 152 125 117 106 102 86 78 56 89 96 109
33 73 74 74 111 90 86 95 102 145 156 142 211 287 322 339 328 296 247 192 169 91 60 43 26 -35 -35 -24 -13 18 25 54 62 81 130 144 157 149 126 112 84 67 62 84 84 92 86 85 114
87 62 44 31 130 153 114 118 126 154 162 196 233 228 223 184 178 132 107 75 18 15 7 -3 -11 6 2 26 36 42 82 94 92 104 122 132 125 94 85 65 46 41 42 59 66 89 112 112 108
15 47 67 109 110 96 120 95 142 172 214 203 192 176 157 119 94 57 56 39 27 19 30 26 8 23 25 -1 -10 -2 8 57 100 129 118 110 133 122 83 61 63 74 84 98 89 87 86 91 93
37 68 90 89 108 117 142 133 146 218 209 159 143 136 84 85 36 16 25 53 28 7 9 -11 1 23 46 38 51 70 103 127 127 133 126 126 129 117 105 101 72 49 53 46 32 53 85 110 120
53 86 125 114 102 102 147 189 164 189 149 172 142 95 75 68 25 -18 91 107 21 -1 0 11 29 43 72 89 118 142 155 156 141 119 137 142 133 106 102 91 69 57 63 66 74 101 112 119 113
80 100 82 90 81 39 122 114 100 35 90 154 102 75 73 79 22 34 143 55 7 47 69 92 99 91 120 146 170 163 141 116 129 143 145 130 128 128 89 102 102 100 101 114 96 140 138 147 162
66 64 22 -17 10 44 83 71 90 24 64 129 85 27 80 84 47 71 141 135 87 107 123 127 120 120 144 150 135 107 106 127 117 109 114 113 120 119 105 132 153 163 171 153 184 195 200 136 94
36 48 46 56 37 35 77 81 72 129 163 182 171 150 74 27 68 148 168 148 131 193 182 141 128 152 128 97 119 96 81 96 104 95 104 122 134 166 165 173 167 189 193 196 187 229 217 169 82
35 27 29 35 10 22 19 55 84 108 141 189 195 114 110 133 217 242 222 224 237 237 202 177 146 94 54 73 90 100 115 108 104 125 114 137 154 172 183 179 194 211 226 167 175 108 89 86 73
51 30 49 37 40 52 39 33 61 152 176 215 184 184 197 235 241 291 320 325 297 260 217 157 95 65 54 131 160 156 115 115 137 149 159 184 198 206 213 183 180 207 185 203 167 88 67 75 95
35 36 54 70 42 78 94 48 51 60 134 226 194 230 258 298 355 334 320 307 285 233 177 152 74 90 178 166 145 130 143 153 168 180 190 187 184 170 153 174 207 230 191 163 46 120 84 99 105

GFSSGP_con_3kmhel_039.txt.gz
Helicity
32 8 23 25 103 152 181 188 83 94 134 160 158 118 107 125 119 110 47 23 41 27 -8 -14 -19 17 49 58 94 108 104 95 96 87 92 100 74 54 42 42 34 32 35 41 45 49 51 50 45
35 31 45 83 119 92 117 102 85 85 77 157 191 120 148 159 72 34 63 -29 44 31 -6 -13 -10 15 37 66 86 88 95 89 82 87 71 43 31 26 29 28 25 26 31 36 43 46 47 45 45
43 56 71 86 108 114 109 62 100 64 3 62 56 33 47 108 53 30 -40 85 32 2 -13 -12 -5 18 41 63 73 88 89 81 59 33 23 13 12 16 18 19 15 21 28 31 36 40 42 41 44
48 71 71 96 54 107 104 25 102 104 60 22 -17 93 7 9 5 -8 90 37 30 -10 -19 -12 -1 26 51 55 79 83 54 32 11 9 1 5 4 4 5 9 12 18 24 29 32 35 35 33 31
63 73 91 90 74 63 70 72 132 159 65 81 7 -23 23 16 28 103 70 8 1 -19 -15 -14 3 29 46 65 66 36 22 12 3 -3 -7 -9 -5 -0 5 7 11 18 24 31 34 36 40 38 35
113 92 110 149 112 46 119 124 197 103 -69 -35 -6 39 9 48 63 70 33 -0 -26 -2 -11 -11 2 30 52 49 31 18 18 -1 -6 -11 -16 -13 -5 -1 4 7 11 20 30 34 37 34 30 28 29
107 94 102 144 160 134 241 153 148 217 89 25 -11 45 57 85 63 51 21 -15 -22 -16 -13 -16 4 32 36 27 19 10 1 -10 -18 -18 -19 -13 -4 6 12 18 24 23 25 30 32 32 34 27 18
62 79 87 144 151 216 208 155 74 -39 -105 39 24 -41 78 92 33 6 1 -18 -33 -35 -28 -14 18 23 15 6 1 -6 -10 -18 -15 -17 -12 -6 8 21 26 26 30 28 21 26 24 24 26 25 26
40 96 93 75 82 167 74 67 124 60 -6 34 -1 13 89 119 16 16 -0 -28 -45 -48 -31 4 7 3 -5 -10 -14 -15 -19 -13 -13 -8 -2 10 13 18 25 30 29 35 43 43 45 44 45 43 42
64 95 34 25 37 -8 46 60 140 78 28 8 56 95 124 60 -3 -15 -37 -42 -34 -17 -17 -11 -11 -22 -27 -21 -25 -34 -26 -22 -19 -8 7 17 25 24 20 25 33 52 75 87 84 91 84 70 56
56 3 -17 9 18 -13 -16 47 -9 -5 -43 8 50 100 53 3 -36 -41 -51 -37 -13 -0 -7 -22 -34 -28 -24 -27 -35 -30 -25 -17 -9 -0 9 27 32 30 32 42 61 79 102 105 108 103 97 105 90
53 93 51 82 57 17 42 86 -12 -16 -36 20 94 137 43 -0 -20 -22 -17 -28 -26 -20 -19 -35 -28 -13 -15 -15 -16 -15 -14 -10 -5 9 26 39 47 51 81 100 113 116 117 128 122 117 116 121 112
41 -30 -27 -17 -76 30 38 19 -19 -28 -13 52 63 36 32 -6 -29 -42 -51 -56 -55 -34 -30 -33 -20 -13 -5 -0 -5 -11 -5 4 14 31 47 59 63 105 130 151 151 142 129 132 140 139 133 130 120
-13 2 11 -23 80 20 24 -9 -21 -33 28 43 63 29 5 -8 -16 -42 -64 -66 -35 -23 -0 11 33 24 26 14 7 -0 -0 7 19 41 69 108 111 127 140 141 155 157 148 142 139 135 130 126 117
-4 51 60 91 56 13 31 9 -12 -21 11 40 15 -2 -14 -55 -82 -99 -100 -91 -33 -2 62 118 144 98 109 96 62 14 27 42 81 124 132 134 125 138 149 152 159 166 163 161 147 146 135 133 126
47 75 63 85 50 34 -24 26 36 15 21 41 36 34 13 -30 -50 -59 -54 -48 -14 51 125 216 278 274 247 212 203 -23 -86 -33 26 64 93 94 113 127 155 165 188 187 168 155 151 140 127 118 108
73 -4 52 73 88 45 26 15 67 60 -12 64 51 47 55 41 22 25 1 18 42 109 187 289 376 438 401 273 149 -4 27 35 48 36 67 88 127 154 177 184 174 166 157 150 133 128 130 143 163
31 58 44 26 53 85 58 36 64 55 44 87 99 83 81 88 66 59 53 66 149 226 340 383 415 413 442 94 41 3 36 29 36 83 112 135 154 164 146 145 155 144 133 130 122 121 128 124 133
33 52 60 54 58 62 59 33 47 71 105 114 103 105 117 127 119 112 110 119 186 218 213 241 252 130 100 30 -17 3 23 63 98 112 128 129 127 146 152 141 122 88 85 75 68 69 89 102 100
49 38 53 50 74 37 26 48 44 58 87 95 93 111 133 162 169 178 157 95 73 74 99 84 55 30 -27 -43 -46 -3 32 42 84 101 119 123 131 125 115 86 69 65 69 71 69 67 62 64 84
79 63 37 33 71 85 48 41 51 73 96 110 109 128 132 138 148 107 69 48 36 1 -20 -33 -43 -63 -46 -36 18 58 78 90 93 127 145 148 151 149 129 109 95 90 92 104 94 84 92 116 115
13 46 43 50 44 6 62 14 63 100 123 126 142 121 107 115 113 82 52 48 32 -0 -32 -20 -27 -11 8 34 28 49 53 77 124 156 159 167 159 131 111 110 116 120 110 96 89 75 77 92 148
-16 44 72 67 83 82 96 76 94 142 138 147 144 99 105 121 112 86 25 38 40 31 2 8 45 50 66 49 76 86 110 127 141 151 159 139 119 107 113 117 117 110 109 90 58 67 82 117 135
34 74 93 91 89 72 110 123 101 152 128 160 124 109 92 115 107 55 30 60 53 34 11 7 77 92 83 93 115 126 127 126 156 159 146 132 128 117 106 93 91 94 100 107 121 125 102 94 108
57 74 60 56 77 58 97 60 50 77 56 130 104 66 83 97 88 66 31 73 60 156 156 105 102 128 132 143 148 124 117 136 147 137 136 147 149 126 102 90 92 124 145 153 154 140 128 120 114
66 48 51 -5 2 3 54 20 38 23 29 75 90 60 75 74 47 40 66 105 134 128 110 107 148 156 146 145 132 113 111 131 119 127 126 123 119 115 125 139 136 135 149 158 170 160 139 160 169
23 53 57 48 33 26 34 36 35 62 92 111 154 169 133 72 73 84 104 149 156 151 147 138 172 181 141 111 97 90 165 132 106 107 120 136 153 168 166 156 152 143 161 180 188 153 170 141 113
50 56 29 45 6 9 8 14 24 24 70 96 140 155 125 111 110 127 178 211 241 223 190 193 189 148 123 121 122 157 131 113 111 131 152 181 193 204 184 162 153 151 155 172 148 133 132 72 88
66 57 66 46 27 18 14 13 21 21 77 122 126 137 134 132 149 186 224 261 252 241 233 190 188 196 119 81 146 139 128 142 153 178 214 216 174 165 157 142 127 130 166 150 148 163 142 111 128
53 47 51 49 33 72 74 33 31 6 22 68 108 149 171 182 209 240 269 271 258 273 238 231 177 138 89 175 177 159 149 167 199 197 159 154 141 131 134 125 138 170 167 144 165 113 105 143 126

GFSSGP_con_3kmhel_042.txt.gz
Helicity
15 5 14 20 64 74 65 81 170 119 114 112 134 160 198 333 196 167 33 64 62 41 35 9 -6 4 5 39 64 75 81 83 78 66 67 74 56 36 32 30 33 40 47 47 45 43 43 43 43
24 21 27 50 77 37 43 101 114 156 167 217 316 195 151 182 133 52 65 15 57 40 21 11 -2 15 21 41 66 76 72 68 56 57 59 46 37 36 28 26 27 32 39 40 40 42 45 44 42
19 26 42 62 40 20 50 116 203 134 153 232 309 230 190 136 65 72 25 5 56 38 8 20 8 13 31 54 60 69 66 54 48 42 34 32 33 27 16 17 18 24 33 36 40 45 46 46 47
21 28 47 32 8 63 114 132 107 111 174 117 -26 157 69 30 78 60 14 31 107 16 -3 13 -1 22 52 50 56 56 53 43 34 24 22 25 19 13 14 15 16 21 27 30 33 33 36 36 36
25 37 30 19 38 72 77 99 89 165 167 103 87 68 -12 -17 -6 55 11 74 11 -6 12 5 -1 26 33 47 49 37 28 24 19 11 10 11 12 13 15 14 17 26 33 41 38 34 30 27 23
25 47 39 22 48 77 83 66 70 126 71 -43 20 -45 -7 73 44 22 44 28 -10 -13 -12 5 9 12 28 43 41 26 25 12 7 4 4 8 9 12 13 17 21 28 36 38 37 29 22 20 16
36 21 50 65 64 88 89 82 140 90 58 -23 -38 10 27 87 56 12 -12 -28 -48 -14 9 4 8 13 36 36 27 23 9 4 -2 2 8 12 19 16 25 27 33 41 38 43 39 37 31 27 30
62 74 47 56 36 117 106 123 48 245 26 9 -20 -61 -2 52 46 23 -7 -22 -11 -5 6 18 9 13 14 22 18 4 -3 -6 4 9 13 19 26 27 25 29 42 42 47 50 45 52 54 57 53
40 16 20 52 57 95 75 110 111 2 9 -11 11 -12 51 151 119 69 22 -35 -5 8 11 12 19 26 26 14 9 1 -2 5 7 9 10 4 15 19 23 56 48 59 66 64 64 74 76 50 71
30 -18 32 44 48 117 150 8 -23 -43 -2 -35 10 38 115 94 47 6 -21 -14 -12 3 14 30 45 43 21 9 2 -2 -1 -2 1 5 9 14 19 28 34 57 57 69 67 82 84 82 63 43 66
19 10 53 28 77 11 -31 -51 -18 -36 -24 -6 8 100 84 21 -5 -20 -23 -22 -8 17 44 66 53 24 15 16 -2 -1 -2 0 10 20 28 39 35 38 46 57 60 60 64 64 67 77 100 106 91
25 16 17 58 59 -50 -20 -27 -20 -23 14 14 -6 85 42 -2 -26 -26 -14 -1 18 26 40 27 24 20 20 3 10 10 9 15 23 40 37 38 37 48 57 70 63 58 75 81 89 114 123 115 103
4 20 29 32 60 -48 -41 -29 36 -2 -2 4 9 5 -5 -19 -18 -16 5 -1 -1 1 16 18 15 17 16 22 21 28 27 23 42 42 54 52 51 67 75 87 83 94 97 114 120 120 115 112 106
-16 -1 6 24 -50 -6 -29 8 -6 -18 -3 12 16 -14 -13 -11 -7 11 -17 -19 -18 -2 15 20 29 32 42 60 71 49 31 35 40 65 65 61 106 100 97 108 119 132 150 163 157 152 135 127 121
9 30 42 2 7 -38 -7 5 -5 30 7 12 -24 -27 -16 -29 -49 -51 -44 -20 5 21 51 59 80 75 84 100 99 31 -39 0 29 59 41 42 57 85 95 126 156 184 175 171 172 154 152 132 132
19 12 8 20 -10 -39 -59 23 -21 3 -3 -3 -10 -18 -19 -37 -43 -51 -34 1 33 66 78 142 164 180 155 180 171 186 5 -9 25 12 49 63 95 123 132 172 197 182 173 158 147 133 128 131 136
5 5 26 55 33 4 -37 28 3 -4 -2 16 18 34 30 14 -1 -11 -5 17 58 88 131 179 225 280 323 357 349 150 -95 -12 14 30 61 83 110 142 164 165 162 142 136 132 118 119 119 115 130
15 33 38 30 47 -1 13 16 24 16 15 19 36 47 50 48 47 40 41 53 68 124 178 198 256 325 382 202 87 77 19 37 54 55 75 93 115 133 141 146 140 121 122 112 91 81 84 72 76
17 10 20 22 30 25 5 12 36 25 28 48 34 45 58 65 66 79 85 103 170 199 193 187 172 156 130 -2 22 28 45 31 37 44 61 84 106 126 155 145 125 93 91 73 61 57 51 37 53
15 35 37 39 29 25 22 24 39 45 57 51 49 46 57 71 85 94 99 106 96 87 98 60 52 56 21 25 19 9 23 38 63 87 102 119 154 170 145 111 89 78 77 68 71 65 71 94 127
48 53 21 32 71 46 -15 -16 38 64 55 70 71 77 73 81 104 113 128 117 79 78 58 43 33 32 24 40 30 53 74 78 81 100 125 160 164 154 134 119 117 117 108 123 116 124 114 126 107
35 48 33 8 -42 -24 12 1 89 77 69 80 102 99 112 128 125 134 137 110 86 83 54 45 40 31 32 36 74 64 55 82 146 155 197 222 199 181 160 136 119 115 114 110 119 122 126 124 164
36 11 11 4 -6 -2 13 -2 120 84 67 102 126 140 142 140 148 155 135 108 89 82 76 23 25 80 110 103 108 98 130 161 168 181 190 185 176 153 136 114 102 99 102 103 111 114 115 126 155
21 -3 8 3 11 -11 37 30 16 73 65 135 120 122 153 157 144 134 122 77 86 63 43 95 96 105 121 111 140 155 172 165 129 122 129 146 144 135 114 110 102 97 99 94 106 121 97 88 77
-45 -63 -11 -8 6 2 79 20 -3 90 57 58 91 108 124 135 122 110 77 64 85 113 115 117 97 137 162 177 185 178 174 155 127 146 152 139 131 119 103 154 127 129 125 118 110 89 66 62 55
1 15 4 4 1 2 6 -1 36 36 23 29 63 81 100 95 88 75 68 73 113 142 110 114 138 187 212 205 197 188 133 156 145 145 133 116 114 142 168 159 158 147 137 132 104 89 96 79 68
30 13 58 36 15 -2 15 11 -7 24 22 55 98 131 144 116 92 82 80 93 134 143 133 156 199 227 222 211 214 179 139 123 133 124 130 148 153 181 187 163 146 130 123 116 93 73 81 90 95
50 67 21 25 9 27 23 18 17 21 38 59 89 109 112 113 123 111 107 130 154 182 189 229 248 253 254 212 200 162 112 144 132 135 149 182 182 160 152 130 116 105 108 106 92 79 88 96 76
63 45 50 45 39 39 35 36 36 31 29 48 68 91 106 129 129 131 144 161 201 231 264 280 266 284 224 198 162 107 157 141 136 152 173 171 144 130 112 103 98 107 114 111 118 91 81 87 58
65 33 31 42 28 45 44 27 43 31 21 48 72 98 96 130 150 161 189 208 241 278 286 284 322 300 164 142 99 143 143 137 150 166 155 145 118 103 97 96 101 113 129 128 94 110 68 52 73

GFSSGP_con_3kmhel_045.txt.gz
Helicity
-5 -10 -7 13 45 43 18 -13 68 67 118 132 239 217 281 252 249 210 169 174 119 66 41 31 58 29 31 35 52 81 85 72 72 69 69 67 49 42 39 39 35 33 33 35 41 42 43 44 42
13 13 10 17 33 -6 15 23 85 245 138 203 287 226 356 242 177 97 127 63 66 54 39 3 53 25 32 47 62 71 68 71 71 65 59 39 34 36 43 45 35 31 32 34 34 34 35 33 34
7 9 23 14 5 1 18 124 215 211 132 173 222 370 376 347 157 165 74 105 41 22 3 62 28 29 38 45 47 50 81 78 62 44 30 26 31 35 42 38 30 26 24 24 26 32 32 32 30
16 11 14 31 -10 -12 61 111 142 112 96 181 195 345 222 96 171 116 55 31 45 41 84 61 31 34 36 33 48 72 85 62 38 30 25 29 30 36 36 29 23 21 25 25 31 29 27 23 28
2 -5 -4 1 -15 32 42 147 65 80 89 69 111 199 101 -24 32 22 23 20 47 62 40 51 30 24 29 39 60 78 54 41 38 33 29 31 32 31 30 28 22 26 26 26 27 24 24 18 14
9 -15 -6 -23 -16 97 46 72 138 40 100 77 48 -4 -86 -12 -45 57 68 80 53 27 65 59 48 48 52 62 72 62 50 47 38 30 30 33 32 29 27 31 35 35 33 28 25 25 23 23 21
-2 -13 -14 18 60 58 152 30 33 210 91 85 38 50 30 6 6 49 91 61 14 58 28 23 51 52 67 61 61 51 42 30 24 23 31 27 22 25 33 44 45 40 35 29 24 23 28 33 29
4 8 9 20 18 50 94 157 84 124 193 15 13 -10 11 39 102 129 -3 -30 -7 9 -3 34 40 33 27 42 55 50 31 25 21 21 17 14 19 22 22 37 48 41 40 33 29 27 34 40 48
-0 17 -10 32 37 220 54 115 69 16 1 59 16 24 51 173 80 21 14 25 -2 27 61 45 25 40 38 33 44 39 30 17 16 10 -0 -5 15 8 10 67 52 48 47 48 43 41 35 33 34
6 -19 16 97 102 52 86 39 17 6 50 28 8 65 106 119 66 53 55 35 20 18 38 46 48 51 36 45 25 22 16 1 -0 8 10 6 33 57 80 58 45 45 50 54 55 44 31 27 48
-3 38 39 52 -19 49 -6 -19 -38 25 -11 35 25 41 50 35 12 1 3 7 17 40 66 63 62 40 41 61 32 13 -1 12 19 27 26 57 23 34 24 57 44 39 52 40 57 60 81 108 85
27 24 50 38 60 13 -11 -23 -18 43 8 50 75 87 31 16 -8 -18 1 5 20 30 45 59 61 77 70 34 28 43 19 21 17 56 35 43 35 49 35 48 83 42 69 75 86 96 92 80 77
19 5 36 52 55 36 48 25 193 51 27 6 94 30 9 -0 -5 -3 24 28 38 39 61 63 57 57 62 65 63 76 53 50 53 46 58 58 49 56 55 87 62 87 97 105 130 146 126 102 62
16 61 50 96 17 12 33 54 43 9 21 54 36 5 3 8 18 35 40 38 23 62 74 62 61 69 89 116 102 77 91 65 59 52 48 60 85 74 65 75 104 125 179 201 159 163 108 106 95
31 72 14 -21 24 37 57 -17 67 3 5 41 42 -2 10 19 33 36 36 30 50 50 62 68 85 96 106 110 141 124 109 94 63 17 42 93 97 128 169 185 211 221 190 159 140 107 116 112 104
-3 38 27 33 21 63 36 49 -7 -19 2 11 17 17 10 23 17 25 9 33 51 75 70 93 101 138 196 241 267 229 167 23 -3 4 31 69 120 132 138 159 160 144 131 131 148 125 100 78 80
13 -10 1 -0 19 9 44 67 30 -6 3 26 18 19 11 18 8 26 14 29 55 111 122 122 142 200 253 227 221 341 106 225 -27 50 55 47 92 92 99 130 147 131 138 135 113 83 66 60 58
-14 -3 37 -1 6 -9 4 74 23 21 8 32 29 40 47 47 42 36 29 31 48 122 141 112 168 274 172 192 204 172 91 45 55 35 41 26 56 92 99 111 127 94 94 101 106 72 71 68 69
36 16 -2 51 18 -6 9 47 24 22 16 25 35 43 53 66 101 36 39 41 63 175 211 220 252 152 142 88 51 38 23 65 49 47 62 71 59 60 95 130 120 106 108 84 64 69 55 66 83
22 7 12 40 3 -8 8 34 37 35 37 44 64 65 62 79 77 63 69 94 156 211 217 169 115 73 46 48 41 32 56 58 59 63 53 75 96 115 121 117 111 120 81 93 108 87 89 111 139
18 29 70 19 32 14 3 39 44 40 41 42 55 50 69 82 78 93 110 141 164 139 101 77 69 76 40 77 83 86 87 88 73 77 76 127 119 136 128 139 131 134 123 139 143 138 128 154 131
7 49 26 22 25 48 23 15 52 88 107 85 71 81 119 99 145 110 122 138 135 108 70 48 74 51 80 76 104 110 99 99 132 145 182 155 169 170 173 181 170 156 145 135 140 132 153 107 132
38 31 19 10 7 -9 13 -16 159 92 119 113 102 90 106 175 141 128 136 157 149 103 74 84 70 94 133 99 120 87 82 154 151 153 201 147 157 133 141 126 138 128 113 117 111 108 137 167 178
24 -1 -8 -19 -0 8 23 -0 34 114 41 125 116 89 138 131 155 145 180 173 160 104 119 119 80 153 143 123 123 137 198 152 155 152 129 107 148 131 147 174 178 162 119 124 140 129 126 159 107
-13 -6 3 -1 18 -6 82 40 -7 88 120 108 132 82 104 112 149 174 170 142 115 105 120 123 125 140 146 160 179 196 202 185 203 168 136 175 143 162 180 219 140 119 126 126 121 125 145 103 86
-23 41 9 21 23 19 70 11 81 125 62 69 94 80 96 88 110 123 118 104 105 121 138 112 106 143 161 190 214 223 217 177 182 166 148 145 141 147 144 151 136 109 106 112 110 121 147 102 100
6 -13 66 44 28 16 -2 31 51 45 43 44 96 99 104 109 116 105 119 98 130 125 133 105 145 204 243 253 257 253 193 168 152 169 147 116 144 137 138 152 124 113 111 102 100 120 121 100 76
36 81 13 17 22 15 13 24 67 27 35 31 84 104 112 83 98 97 120 131 132 119 162 141 173 244 274 276 275 241 203 105 136 134 124 142 138 135 123 123 113 105 104 110 113 99 126 88 141
36 16 21 61 48 44 64 43 96 47 33 27 41 88 120 95 95 95 126 154 142 167 216 179 220 327 299 308 265 181 109 142 116 117 150 152 148 120 125 112 108 105 110 87 169 142 100 113 111
78 32 20 35 19 38 64 46 24 67 32 27 47 94 98 119 114 116 141 205 164 182 189 237 258 340 330 338 246 77 126 127 123 135 144 149 136 121 108 106 108 106 89 154 238 159 88 81 113

GFSSGP_con_3kmhel_048.txt.gz
Helicity
-4 -2 -9 43 58 62 50 13 58 107 188 209 178 214 205 258 184 258 82 219 241 154 85 74 73 46 57 63 70 71 76 80 78 66 42 41 37 34 33 33 28 29 33 33 35 37 38 36 31
-7 34 17 28 62 72 23 61 258 266 150 213 302 150 199 269 188 168 212 158 143 111 88 77 68 50 62 59 63 73 78 82 71 56 48 39 34 39 34 28 26 26 31 28 29 28 27 27 20
-6 25 15 9 6 58 34 64 89 67 72 96 61 255 280 260 231 153 130 146 116 64 90 71 63 55 47 68 79 77 91 87 78 61 41 34 39 34 32 28 24 21 23 26 27 23 17 11 3
19 -2 12 23 25 11 33 101 108 185 53 129 174 183 188 200 249 137 74 31 117 103 90 68 56 64 55 89 87 92 99 89 66 43 33 35 34 34 30 27 22 22 25 26 21 14 5 2 2
-3 19 -3 -4 -23 25 12 103 33 61 90 33 86 147 133 101 145 104 225 216 183 117 83 50 50 69 76 81 83 95 85 60 47 42 39 34 33 29 30 30 28 27 33 24 20 9 -2 -7 -1
-3 -4 15 -9 -32 -39 177 325 472 273 216 91 91 70 71 57 139 144 185 84 114 184 89 47 63 74 79 78 86 75 62 59 54 48 36 36 32 30 31 29 31 33 33 28 18 12 3 -1 1
-11 2 -1 8 17 5 94 207 201 188 168 281 57 41 58 52 22 79 109 128 153 78 -4 70 80 99 101 82 74 66 68 58 47 43 39 31 22 21 30 36 38 31 30 24 18 18 12 10 6
-4 -0 37 25 19 139 245 126 30 112 70 -4 21 89 14 135 101 90 85 157 60 -9 28 27 39 59 82 80 70 61 65 53 49 41 21 7 4 8 20 31 34 31 26 21 19 18 22 29 17
26 7 -9 12 20 93 211 33 66 1 35 -1 45 -11 107 153 201 161 122 -19 58 -42 -54 -30 6 15 55 63 51 60 58 39 34 12 -11 -28 -20 -17 15 34 38 40 35 26 24 17 17 45 48
2 -15 -11 42 -11 -14 54 109 16 21 19 41 122 132 162 114 121 114 121 38 50 -18 -16 -12 -1 30 14 42 10 21 6 -9 -3 -4 -7 -21 -0 24 48 44 33 24 32 39 21 7 39 63 52
-5 12 25 83 -26 -34 -2 -16 -39 74 96 -40 77 59 30 50 34 25 -28 -18 -57 49 58 54 83 52 30 25 -29 -2 -11 16 15 19 25 26 36 16 50 69 30 1 7 50 51 68 112 99 90
13 9 6 49 10 14 27 -4 94 86 80 -63 -8 21 38 21 16 -12 30 32 67 71 61 101 97 144 130 52 7 5 13 1 4 43 59 51 42 40 40 80 84 70 135 67 157 153 167 135 118
-18 21 74 20 34 3 146 42 -5 52 -13 -68 -12 4 4 18 104 60 33 32 46 48 68 71 82 80 18 73 129 201 188 125 89 58 60 55 71 79 72 67 113 156 194 244 231 210 160 128 110
20 72 93 122 67 33 115 163 -37 -23 77 85 30 30 30 -10 5 14 47 66 46 97 105 82 64 28 139 230 208 227 268 144 118 84 58 63 62 63 93 157 262 240 200 175 166 144 120 105 103
54 97 74 77 75 31 161 -13 101 10 56 18 19 22 11 71 80 72 70 61 126 104 93 71 66 168 226 282 293 188 142 102 84 42 67 59 166 136 150 185 212 193 150 139 138 125 126 113 91
35 13 71 74 59 -11 39 -105 7 44 20 37 50 69 57 65 91 94 81 66 134 131 69 96 138 225 298 199 116 87 78 131 195 160 89 43 124 162 159 166 149 134 111 109 106 109 100 80 60
48 60 144 51 61 -5 -36 -6 40 29 25 32 27 37 42 45 62 56 41 69 120 192 139 188 212 318 231 170 150 162 190 222 145 84 55 -4 164 120 93 97 98 90 129 149 153 100 67 55 53
23 15 -0 -3 37 47 70 10 77 20 30 41 29 32 50 49 49 69 40 49 143 205 280 179 292 256 186 161 154 123 118 110 34 -2 63 67 72 57 17 50 61 56 95 127 107 97 82 74 81
13 9 6 22 25 5 -11 91 88 37 4 80 64 51 61 65 104 162 71 80 175 272 314 341 277 201 166 146 118 121 130 83 88 75 72 43 47 72 68 109 91 110 104 100 97 117 93 70 62
47 27 24 26 33 -16 -8 39 98 49 41 23 87 116 103 99 161 133 97 120 182 301 405 348 230 166 73 65 91 81 89 86 84 102 73 100 87 61 70 80 129 185 148 123 173 152 116 117 137
29 54 90 102 36 -7 -18 -4 98 67 7 -4 65 97 114 148 206 118 124 125 243 411 394 241 165 91 20 95 117 114 114 169 159 146 74 108 73 82 116 145 164 186 174 157 142 133 156 145 122
35 73 -26 71 -93 15 38 -33 153 44 36 40 51 115 166 172 217 125 119 238 267 239 231 101 48 39 58 118 123 142 158 131 101 133 203 196 159 131 171 180 175 161 140 127 139 143 138 149 167
-53 15 83 5 22 27 89 -43 101 49 52 37 44 43 64 119 150 219 288 221 152 141 60 2 37 89 140 139 161 130 129 210 211 241 338 278 182 169 144 133 127 164 190 169 168 178 174 174 180
-5 -42 19 2 10 68 138 65 92 103 7 25 43 78 122 161 201 210 190 141 53 60 82 155 140 191 191 151 182 127 152 243 286 240 252 194 156 231 210 285 338 306 233 211 185 167 161 163 194
3 -5 26 63 -16 20 -6 33 2 -34 21 185 96 149 114 287 267 239 217 221 287 191 168 150 130 254 213 164 195 242 273 300 306 303 244 271 260 234 250 272 277 227 188 159 154 150 143 146 200
51 22 -13 32 26 27 144 5 82 162 128 132 190 162 203 202 212 161 209 219 231 195 174 133 161 250 222 206 229 275 287 235 281 298 253 238 252 225 229 223 200 177 165 159 156 152 145 132 189
68 18 25 12 16 -10 3 12 93 106 92 77 132 150 186 154 158 152 186 217 213 186 155 120 176 244 279 240 333 347 322 352 309 269 249 236 251 218 236 198 183 166 154 149 146 160 146 163 218
25 42 14 5 22 13 18 -26 193 57 50 31 86 120 178 150 141 118 173 179 211 202 176 128 139 324 301 385 409 344 349 296 212 183 148 259 218 204 180 169 162 149 143 136 143 158 249 212 201
16 -19 27 15 25 43 42 49 76 72 55 44 9 144 159 165 149 143 164 209 197 240 226 256 172 303 396 509 412 478 422 335 343 84 195 243 223 180 164 162 151 134 138 131 148 246 244 188 145
95 63 10 63 38 79 63 47 34 55 51 30 35 115 138 211 154 159 130 237 274 334 323 332 254 366 480 551 564 357 288 188 159 175 183 220 197 159 147 158 143 140 150 157 200 220 198 175 179

GFSSGP_con_3kmhel_051.txt.gz
Helicity
-4 13 27 45 92 96 80 46 92 106 183 199 171 0 22 119 129 159 128 134 181 222 129 120 120 92 63 58 65 79 81 73 77 80 70 47 31 32 25 19 11 15 21 26 28 31 27 27 28
0 23 68 66 70 82 80 41 75 52 141 129 167 111 188 75 89 161 165 77 147 219 180 116 110 83 70 58 69 79 80 81 86 82 54 30 30 29 21 17 14 18 28 29 23 16 23 26 28
4 8 54 67 43 89 48 26 -44 -34 108 129 179 140 83 56 174 188 143 147 235 185 138 99 102 93 83 60 70 83 78 80 81 56 39 36 36 27 25 21 20 19 26 20 18 20 20 23 29
27 41 43 44 7 55 130 71 263 149 189 112 62 100 133 166 142 224 255 108 222 175 137 113 89 75 63 59 77 80 80 83 61 43 36 36 35 30 28 24 21 24 22 20 23 14 6 8 13
54 52 47 36 2 77 74 199 257 192 76 77 78 86 124 111 198 245 329 241 310 165 128 84 62 62 71 97 89 81 93 70 45 40 45 39 30 29 28 26 27 25 26 27 29 19 9 1 6
72 81 65 2 56 34 166 348 238 250 230 149 135 102 75 95 172 224 227 214 300 170 110 68 49 53 88 93 81 84 65 48 46 47 41 32 27 29 27 27 21 21 30 36 30 19 6 1 3
63 53 8 92 96 63 60 103 131 107 99 124 120 183 6 62 97 149 154 191 255 194 133 73 3 59 90 82 74 62 60 58 49 38 35 26 21 19 19 20 20 30 31 33 26 16 9 14 17
63 108 90 34 -37 -40 7 108 142 188 106 36 85 74 59 55 118 172 89 91 159 156 145 -20 39 80 75 58 65 65 56 38 33 20 15 6 11 15 13 13 19 25 32 28 26 17 24 33 20
-26 -15 7 28 -52 -84 -113 18 5 2 23 41 58 92 134 184 150 166 120 197 135 28 -46 -63 27 46 58 52 68 61 40 29 18 15 5 8 -7 -14 2 7 17 27 25 24 17 22 47 47 62
18 15 0 5 -31 -41 -48 101 174 111 137 63 117 211 157 190 163 206 229 181 52 -168 -50 -36 7 24 46 55 49 25 8 13 20 3 -12 -19 -10 -4 9 11 4 17 23 17 31 33 50 76 77
40 49 31 18 54 86 83 175 139 286 152 34 107 96 160 196 156 207 132 -7 -87 -126 -48 -33 -25 -24 50 54 24 -1 -9 3 16 19 7 -26 -17 6 47 30 20 47 32 78 136 141 147 160 128
16 28 32 -3 88 54 66 -9 -53 -24 43 -21 121 95 81 121 102 149 -14 -137 -186 -127 8 -17 -5 -6 33 3 -3 -30 -32 -28 37 53 64 53 70 97 59 34 50 142 242 224 203 206 186 171 146
3 30 36 44 28 77 4 -141 -58 56 121 -9 72 44 27 27 43 36 -39 -49 -7 83 65 119 104 33 58 138 153 134 166 168 146 133 93 80 87 118 143 170 232 225 223 188 193 195 189 172 147
25 170 140 97 67 2 -27 19 16 23 48 7 53 -9 56 103 105 47 -46 95 123 106 82 106 76 111 197 246 256 291 227 169 119 123 127 142 144 155 141 185 176 178 162 150 167 165 151 151 135
12 73 64 75 124 115 55 49 22 -31 -98 -31 -73 26 53 17 27 -48 106 127 150 79 60 58 123 226 269 252 190 159 148 139 150 177 158 109 118 152 141 154 181 152 134 138 143 145 144 128 107
6 20 89 59 121 134 26 48 24 10 -92 -57 9 85 60 -33 -35 32 126 178 144 94 65 69 169 227 206 187 186 188 187 169 147 154 234 167 116 111 115 186 201 158 142 122 103 83 83 82 79
64 17 61 3 165 6 -48 -32 8 -78 37 61 66 99 120 67 104 127 220 244 216 135 96 210 241 220 217 199 200 199 203 155 119 127 181 117 60 111 89 133 135 140 111 89 78 74 77 68 60
29 15 59 46 51 198 78 -22 51 38 92 63 72 84 104 120 116 118 211 232 217 190 233 313 250 221 252 271 250 198 163 126 127 124 107 53 46 86 84 83 79 105 91 70 59 51 54 32 20
24 122 164 61 16 82 126 40 108 108 118 98 75 60 88 123 110 128 215 283 339 336 406 315 312 234 249 231 188 151 121 118 77 57 69 80 104 119 111 77 75 85 89 69 61 75 73 42 42
11 19 8 -10 -22 40 16 99 120 65 166 123 115 142 187 178 208 178 222 296 384 429 438 358 312 219 196 172 110 107 125 68 47 88 112 114 122 104 93 102 104 125 125 123 120 108 80 62 61
-21 0 -4 27 66 7 -59 45 28 13 84 129 148 184 198 320 301 304 258 285 357 472 429 343 284 197 154 86 83 126 132 139 165 158 145 128 120 102 67 89 98 139 121 103 95 88 91 79 65
-10 71 29 38 9 15 48 8 -50 -47 37 88 172 155 223 288 347 305 285 326 434 410 321 225 180 122 83 45 123 143 167 204 153 133 135 140 121 107 114 123 130 149 130 130 103 111 111 124 114
-17 -44 -16 12 27 52 22 74 -7 7 -38 -11 37 192 243 300 407 362 379 360 320 269 160 101 145 98 80 113 164 190 173 174 187 214 244 197 158 157 175 197 247 245 216 200 194 164 149 134 138
14 36 39 41 20 42 65 141 -2 -1 102 55 -19 46 129 270 301 310 305 317 299 228 164 156 114 71 94 164 177 192 187 285 352 330 292 247 224 248 329 371 372 330 288 243 195 160 147 139 145
56 31 85 74 1 -35 -12 124 62 7 -33 60 19 -6 118 216 347 379 367 373 292 176 143 123 99 123 206 283 248 257 319 355 373 367 373 355 294 353 363 320 307 268 215 176 177 164 149 136 148
73 20 65 45 37 44 22 17 -2 10 28 42 95 74 72 230 343 290 318 347 289 220 161 161 245 275 261 269 325 347 357 402 431 434 387 367 330 311 260 233 195 177 158 155 151 149 143 144 164
-3 63 51 28 17 47 2 56 136 144 131 111 84 132 290 327 300 312 339 325 308 308 254 239 278 287 306 310 313 346 391 403 423 408 419 485 518 372 220 203 197 168 152 151 142 142 153 207 199
33 10 6 37 30 3 41 23 74 96 33 80 145 187 217 242 233 249 329 366 360 325 245 219 242 269 305 379 392 403 448 402 392 381 436 315 291 263 221 181 169 159 150 135 143 160 190 196 170
9 30 50 63 65 32 50 55 16 10 36 2 67 179 229 250 237 257 311 353 372 341 287 183 204 303 406 480 518 627 589 545 366 454 172 359 215 227 207 172 163 150 138 169 177 190 175 170 163
48 27 43 79 42 60 34 35 50 68 65 60 -25 137 230 285 292 257 277 356 379 365 329 288 346 451 546 661 658 602 536 448 285 300 270 205 222 218 208 181 153 127 152 156 147 132 125 169 165

GFSSGP_con_3kmhel_054.txt.gz
Helicity
18 29 41 78 101 107 81 52 65 69 70 98 83 92 53 104 113 86 81 72 89 98 110 140 161 179 94 91 86 85 80 78 72 69 71 60 51 51 41 30 20 23 31 35 38 43 53 75 127
13 29 65 69 71 77 49 38 30 6 43 44 141 85 87 57 72 18 154 144 119 121 110 144 209 191 128 80 68 81 68 71 70 69 71 57 51 45 32 27 19 23 31 35 35 41 51 72 128
23 32 51 52 35 21 15 26 -6 26 58 48 63 103 85 100 118 -3 118 112 117 160 170 187 219 169 101 73 59 75 76 79 79 66 61 56 46 38 29 20 18 24 32 31 36 44 55 63 90
36 71 71 38 -1 12 53 29 39 40 60 68 107 155 120 97 140 181 186 178 189 186 234 155 197 169 112 73 72 77 90 79 70 49 42 43 33 33 23 15 23 33 41 37 47 55 64 79 96
63 63 53 25 19 29 1 53 162 110 83 98 58 82 109 143 216 331 258 225 240 244 190 146 144 133 76 65 62 73 70 68 39 33 31 31 35 27 20 22 30 35 40 35 41 41 47 61 83
61 62 26 17 45 30 -8 30 68 95 124 83 67 75 110 117 211 262 284 234 313 265 172 96 55 51 52 39 52 80 71 41 24 21 26 29 26 18 17 19 24 32 28 34 31 40 47 54 66
41 44 10 79 54 61 -2 -24 36 99 46 21 44 100 80 105 152 196 229 217 255 114 115 56 61 45 20 63 77 65 42 23 6 19 17 18 16 16 9 17 24 26 29 34 62 66 62 50 61
54 23 49 65 70 14 -34 4 50 -24 45 144 53 153 128 124 181 242 220 334 262 240 101 112 51 9 61 69 53 40 19 -1 9 10 18 19 14 16 22 30 28 37 45 46 65 63 59 60 65
40 19 49 108 78 -13 32 63 61 85 145 166 184 121 146 123 157 202 186 107 94 178 214 132 -47 -11 53 34 20 22 19 8 7 21 12 12 0 14 29 22 45 70 65 80 67 81 61 69 92
33 17 20 33 18 -10 22 30 11 57 148 209 226 160 174 120 134 123 92 118 167 117 76 -62 -32 11 21 1 -4 -21 -25 -11 16 13 24 22 33 26 29 42 61 65 75 81 98 102 117 119 111
36 26 20 25 -4 11 31 -56 -49 25 131 82 97 106 108 166 133 103 16 -7 -18 -106 -71 -55 -48 -11 2 -11 -19 -1 41 18 40 58 26 53 43 26 41 82 71 66 85 119 166 167 152 161 154
65 89 95 81 61 8 -19 -15 -84 -37 85 82 80 146 181 219 112 85 159 -56 -151 -76 -44 3 18 -9 -14 -20 -16 23 53 74 100 43 26 5 37 58 74 79 95 137 143 200 181 168 176 190 162
18 30 68 74 71 18 29 -21 -70 -61 35 49 71 190 178 210 147 8 -125 -188 -174 -157 -35 12 -20 -32 -16 11 12 32 87 105 84 107 100 99 96 103 123 158 161 162 160 171 174 173 164 157 148
-11 38 147 119 50 9 38 -69 -9 26 21 43 51 114 142 142 60 17 -74 -99 -53 -44 3 19 -3 -39 31 78 85 73 109 109 113 115 109 142 171 169 188 189 179 179 182 190 160 135 124 114 125
-16 58 80 40 40 -8 55 -47 -31 22 37 70 56 80 50 67 67 49 11 -21 -2 33 96 95 131 112 115 109 128 128 130 134 132 110 134 170 184 201 194 181 193 184 198 176 160 124 108 126 116
34 34 55 -118 33 9 42 4 -39 -1 47 -7 44 48 74 88 39 -13 8 11 41 127 152 163 170 164 162 152 172 179 169 155 151 148 142 161 198 201 186 166 172 191 188 149 126 96 91 80 65
70 45 48 39 23 -13 -35 -11 17 20 -3 -15 66 110 128 96 35 29 53 68 105 132 155 142 155 188 200 203 210 198 196 176 165 171 164 167 184 151 139 145 181 185 147 135 96 91 61 30 1
21 8 13 105 20 -16 -6 -41 37 17 54 63 89 129 145 130 60 48 123 119 132 113 184 180 177 219 233 250 239 234 234 189 159 156 143 145 160 154 146 165 156 139 133 110 93 67 26 -30 -19
73 15 -2 54 119 134 54 -6 26 93 111 163 153 188 141 83 -1 84 182 191 160 141 194 193 206 196 248 263 259 231 185 157 154 136 129 150 148 120 142 137 126 114 107 82 25 18 29 34 55
-4 57 64 101 -18 159 47 56 35 136 189 235 200 180 156 118 192 169 198 210 235 235 183 197 192 210 225 250 245 186 145 106 101 90 99 127 135 134 128 104 90 66 56 47 79 84 75 67 65
-71 -24 23 62 26 25 32 10 16 -10 29 62 125 191 200 247 330 332 309 312 308 315 276 224 217 204 211 221 239 187 188 177 141 101 119 120 135 125 130 106 80 71 94 72 84 96 89 67 42
22 26 59 53 15 23 40 3 54 39 78 107 90 138 208 243 366 397 431 421 443 352 327 277 244 183 165 206 222 189 179 220 125 153 151 140 131 113 97 107 116 128 120 111 102 85 68 59 80
161 29 10 74 12 16 8 56 34 57 65 121 159 165 257 300 356 470 463 487 482 446 407 350 195 152 149 200 173 149 140 147 161 195 207 180 138 148 182 203 215 256 212 157 142 141 116 77 85
4 13 54 63 53 22 32 51 -14 88 223 204 214 167 212 298 308 442 442 446 314 293 346 271 181 126 139 175 114 157 151 186 237 256 254 223 264 341 367 397 319 376 236 168 169 150 126 123 135
-3 54 49 53 61 -17 57 55 31 28 -1 61 109 158 132 276 312 416 466 394 318 284 252 284 259 209 145 120 124 152 176 236 243 313 317 378 450 500 367 362 448 459 244 173 130 126 132 146 141
-5 30 40 28 18 41 42 21 15 3 4 -2 -13 77 182 189 296 354 406 339 337 268 254 250 184 170 146 155 209 212 244 331 352 373 413 495 499 376 279 344 276 200 163 142 126 140 139 131 142
45 42 48 68 55 71 30 36 54 63 55 4 13 88 130 220 256 293 362 340 259 246 234 192 186 213 217 257 347 374 399 447 489 538 488 540 377 219 309 338 257 135 222 123 118 117 122 133 147
57 35 51 73 13 34 33 46 47 54 12 4 -10 50 96 165 181 221 228 241 228 205 159 191 219 256 290 327 344 376 415 482 500 505 547 429 487 332 281 189 207 170 185 155 135 118 114 139 142
49 57 51 63 78 34 22 61 6 9 14 10 -12 14 115 169 181 189 196 200 215 216 261 241 250 307 349 436 496 603 554 655 727 598 461 411 453 326 154 275 168 156 139 130 119 108 108 119 132
36 7 41 85 48 76 60 31 42 31 20 66 40 63 116 181 183 227 264 329 331 347 344 348 291 340 483 645 768 755 729 625 531 443 581 162 182 348 224 197 159 144 114 91 111 110 135 135 129

GFSSGP_con_3kmhel_057.txt.gz
Helicity
42 43 57 73 76 82 70 59 51 74 40 75 135 42 75 93 104 109 30 107 134 152 118 151 142 147 155 148 166 131 95 92 82 92 98 87 79 70 59 42 33 32 42 52 83 100 112 91 106
30 42 77 54 48 52 33 40 63 85 56 45 96 86 108 110 124 82 106 81 166 133 144 142 150 175 176 151 163 153 92 76 71 77 88 68 65 51 44 46 37 37 46 57 94 117 135 127 118
26 54 62 36 21 29 42 54 85 43 43 21 42 86 72 79 115 109 109 130 127 142 148 151 171 198 180 122 133 113 86 68 56 68 66 54 48 43 53 51 42 42 46 56 84 105 125 108 78
33 67 56 10 10 29 60 96 24 76 64 55 51 73 97 101 90 65 132 184 182 148 163 145 154 168 180 98 89 100 72 40 48 66 62 43 40 43 51 51 47 43 47 52 63 89 107 97 74
61 44 42 5 31 30 40 -6 -11 16 38 60 30 28 47 69 123 184 157 153 146 148 179 163 158 159 132 104 55 70 32 31 48 55 41 32 33 35 39 44 37 37 47 68 83 107 105 104 108
60 39 25 21 49 61 50 -34 5 10 -12 20 58 35 52 91 205 187 229 223 218 287 271 228 121 70 78 41 37 31 20 56 34 29 29 24 20 25 35 37 38 48 50 67 70 82 79 89 92
24 46 23 39 82 62 -3 -22 -15 22 60 73 100 109 94 129 123 172 249 290 311 328 324 172 201 100 30 38 23 25 61 25 2 28 28 18 10 15 24 40 53 62 83 71 77 72 72 76 78
24 40 25 26 87 98 -9 -10 1 50 86 86 104 86 86 118 178 219 256 328 320 443 331 170 145 59 71 -66 17 48 31 24 5 -4 4 1 20 39 50 62 67 108 100 76 77 113 131 110 101
25 55 24 72 79 29 -8 -31 21 49 85 102 126 116 167 196 198 228 245 384 438 262 185 290 72 55 -60 1 29 16 8 -22 -3 31 32 47 37 45 49 72 112 121 89 96 111 124 124 136 139
34 47 -4 12 3 1 -32 -37 18 26 40 134 200 200 182 163 166 135 154 160 258 225 32 56 31 -23 -42 5 21 53 46 38 48 54 47 29 44 66 86 113 132 104 85 116 148 153 149 136 108
24 19 29 29 -5 -26 -30 -30 -14 8 23 90 136 120 128 124 75 74 98 108 146 140 211 -154 -240 -77 -30 21 19 21 4 56 62 32 58 60 82 107 115 108 93 71 111 131 156 162 144 162 129
67 73 61 58 40 16 -38 -30 -2 -29 -9 65 85 87 149 21 9 28 19 45 2 -90 -201 -220 -6 -14 15 -9 -15 -10 -9 65 49 59 67 71 78 91 95 97 100 137 159 194 180 156 158 168 142
38 63 5 61 49 -21 -7 15 -12 37 76 137 101 55 109 7 -78 -61 -54 -129 -153 -117 -165 -37 17 30 20 5 -6 46 45 44 40 16 28 50 80 94 108 131 168 188 182 181 191 196 172 154 136
39 57 44 37 -5 -23 20 17 13 30 131 148 131 47 42 39 -57 7 -87 -66 -134 19 -16 -7 22 27 13 22 -2 21 37 77 77 63 78 83 112 131 169 198 208 207 192 195 204 180 146 122 113
9 72 40 -27 17 -1 34 2 -31 -6 145 126 95 55 27 42 -11 41 31 -22 -36 -59 -51 16 59 43 60 41 26 45 65 65 89 92 93 107 146 176 216 237 222 188 197 216 184 131 120 125 114
22 22 19 -53 -45 -16 39 46 -22 19 126 79 63 34 7 62 12 -8 -12 14 16 11 26 41 49 41 24 22 29 68 80 86 92 101 120 155 174 212 241 252 204 178 198 170 131 104 106 101 99
32 -5 -30 41 53 38 -19 -31 -19 34 63 72 57 54 31 20 -26 -27 -33 26 63 44 64 86 74 73 67 73 103 115 127 119 120 133 147 163 197 218 232 208 173 164 146 127 94 97 71 60 47
51 9 40 32 5 42 12 20 36 89 86 102 100 84 61 30 11 -22 -43 -8 -3 23 67 112 125 132 137 164 181 183 177 155 139 148 178 193 204 213 221 184 150 141 132 111 97 66 58 6 -38
16 44 46 113 134 61 39 1 19 70 90 103 106 113 81 60 -2 -31 -39 -38 -12 47 146 203 209 185 224 224 224 206 198 190 176 162 183 184 183 187 178 152 130 113 127 82 46 28 -1 -27 -18
-9 15 70 74 31 37 43 30 29 96 128 144 154 158 108 22 21 -3 -2 38 85 117 159 175 195 232 209 234 243 227 233 176 152 170 176 157 143 148 138 132 119 115 108 91 28 7 9 21 33
35 17 47 55 34 4 13 28 29 34 120 56 110 181 139 134 112 82 88 149 183 176 191 179 189 217 232 235 265 269 280 224 198 200 188 125 140 136 143 133 130 132 134 70 52 88 81 69 39
57 -6 -21 28 18 1 33 37 -0 126 124 128 139 156 164 170 117 140 170 185 225 235 229 195 196 217 202 223 244 278 231 206 182 195 152 152 134 141 154 180 178 153 146 127 123 129 97 63 45
38 9 -7 17 63 31 26 23 -7 22 166 209 182 211 203 228 223 252 289 272 250 251 280 268 267 232 215 186 220 206 188 154 163 192 178 171 168 194 227 200 186 165 182 203 155 154 143 92 88
-29 -1 38 29 38 2 6 -10 -20 51 193 173 218 255 215 281 266 240 295 292 339 297 283 333 299 282 222 218 206 227 146 144 168 198 211 195 227 243 283 279 316 250 194 208 292 226 109 133 137
11 57 60 50 55 -15 35 41 2 16 1 45 229 258 261 343 400 405 395 404 441 393 278 273 272 211 254 277 261 140 110 144 147 192 228 311 349 386 429 472 499 167 520 189 151 241 122 160 146
46 52 62 47 44 30 64 14 14 -0 28 29 59 118 194 301 413 482 465 424 446 342 289 282 251 213 257 269 159 115 131 176 184 249 347 426 545 636 860 437 261 307 334 236 305 234 167 145 172
43 53 48 99 93 72 48 51 47 48 35 25 36 108 120 157 266 373 371 364 380 317 246 269 225 224 235 157 154 175 192 254 327 406 476 614 619 677 472 263 328 259 261 141 201 203 163 132 124
57 64 96 98 53 45 44 41 30 52 41 34 33 11 21 94 147 210 263 296 323 250 225 244 256 205 172 192 208 245 331 402 502 581 747 771 640 693 417 646 268 143 179 158 201 152 132 114 107
127 137 132 82 68 59 49 28 -5 23 56 48 32 15 30 54 88 99 149 215 253 238 223 199 207 204 230 276 348 400 513 663 741 715 775 747 445 406 389 301 287 104 204 175 135 143 125 103 88
110 112 107 124 57 80 89 42 38 -14 -6 25 3 25 27 47 70 86 107 144 192 206 208 218 193 265 320 416 536 617 650 767 758 638 605 390 354 301 180 293 43 230 176 159 132 108 83 90 100

GFSSGP_con_3kmhel_060.txt.gz
Helicity
55 55 53 63 54 42 29 31 36 82 40 64 43 57 -5 41 50 47 29 71 170 205 210 177 145 146 150 151 144 129 117 104 88 77 87 64 66 75 78 86 84 75 85 77 55 48 45 28 14
46 52 72 44 51 53 28 35 28 25 46 77 89 106 121 105 7 50 102 52 164 198 224 197 179 179 182 183 165 136 92 104 87 81 79 62 82 80 66 76 78 79 74 67 68 69 66 59 42
44 52 50 37 20 15 33 64 104 24 35 26 35 80 102 73 26 68 89 92 182 206 216 193 206 212 221 198 158 119 87 99 101 90 69 60 78 65 52 52 59 60 61 64 57 46 46 44 46
41 61 64 36 20 29 54 62 27 19 44 41 29 65 65 71 40 45 82 118 172 176 189 188 174 159 173 154 131 92 51 89 96 58 52 52 56 55 27 26 48 62 71 78 74 72 50 50 53
55 55 53 18 37 40 48 8 19 32 60 9 5 15 36 44 45 79 126 166 168 164 165 127 139 177 184 157 100 91 51 76 84 71 44 35 44 33 24 37 70 87 79 77 86 91 94 75 76
49 44 33 25 51 60 48 -17 -24 16 18 25 58 61 36 23 66 150 153 160 203 223 177 200 181 204 221 85 65 71 43 94 47 58 27 35 16 33 64 90 102 92 81 63 66 93 111 94 63
37 41 28 49 81 58 5 -1 -17 6 26 34 28 48 52 100 122 162 182 205 238 231 318 359 296 292 98 118 50 41 43 8 73 53 28 21 55 84 91 89 88 88 95 101 97 87 107 103 90
59 39 25 21 57 87 26 1 -8 19 31 60 61 46 42 84 136 197 219 240 214 295 333 286 242 166 104 125 37 12 15 50 56 40 49 82 81 76 95 79 93 100 93 111 129 146 134 115 105
44 49 16 15 38 19 29 6 -11 11 30 64 83 92 119 119 170 219 240 258 339 454 347 315 264 269 293 244 24 31 47 51 53 71 53 70 69 81 93 89 94 91 109 124 147 149 147 144 146
52 35 -24 1 21 -7 10 18 -13 16 41 70 91 130 148 139 143 147 211 327 474 294 249 161 205 143 228 -39 -4 12 33 63 31 -13 67 76 82 86 74 77 92 126 131 152 167 163 157 127 88
24 16 16 42 22 -2 23 -6 -19 18 -15 27 64 61 90 89 114 158 212 220 133 193 19 40 83 88 -60 -10 -8 -16 39 84 63 79 85 63 70 64 64 82 98 104 132 128 140 141 133 133 104
-22 21 25 16 15 42 6 -8 -15 -23 -49 8 52 49 54 35 77 98 173 166 135 67 -14 -112 -102 -92 -78 -65 -31 30 30 12 -4 -17 38 67 77 69 78 88 117 138 128 152 144 147 146 135 120
49 47 19 4 24 37 31 -19 -28 -13 13 82 51 77 7 22 15 12 139 192 67 -144 -270 -228 -176 -61 -9 33 12 -17 -20 -17 -5 45 50 65 61 76 91 131 153 168 163 165 170 163 148 127 112
37 34 10 11 8 25 37 -13 -11 30 63 38 31 18 -45 -24 -47 -53 -176 -256 -134 -185 -215 -131 -8 15 38 18 9 13 45 53 38 28 20 37 61 88 142 163 177 189 180 179 184 159 126 107 98
22 64 21 -22 -17 19 6 -17 -13 101 68 66 26 -14 -33 -28 -53 -33 -9 -52 -89 -17 2 -6 25 38 51 35 17 23 17 17 24 50 54 69 113 146 159 184 213 190 191 204 163 134 114 112 103
37 22 21 5 -18 -22 10 35 -25 138 110 42 31 4 -13 37 47 14 -59 -32 -6 -11 7 29 47 55 32 32 26 43 45 44 39 60 88 99 119 145 190 218 209 187 176 155 135 114 127 125 131
62 13 12 25 -34 26 36 9 -13 80 24 44 11 5 9 20 24 17 -5 11 37 26 34 29 60 54 14 15 12 23 53 59 60 83 77 101 150 177 205 218 198 175 160 145 120 121 110 121 98
29 11 19 44 22 57 126 135 48 84 49 61 24 16 31 22 51 30 16 -15 -19 -15 -19 14 9 21 22 48 67 75 89 91 85 72 96 155 187 198 226 217 190 157 161 135 122 132 127 74 43
-50 -31 36 69 39 25 84 96 54 111 63 85 61 47 26 34 -7 -18 7 2 5 14 23 60 76 58 93 103 117 108 114 107 112 105 147 173 198 221 213 195 169 147 144 125 126 103 73 19 -7
-19 18 16 50 -0 13 38 15 37 130 118 139 139 73 51 -0 -39 -78 -46 10 54 88 59 74 89 143 138 157 161 136 154 124 134 148 169 197 218 183 171 169 152 152 171 140 107 71 32 2 -15
35 14 36 22 -19 -16 -1 10 36 99 80 76 84 114 50 57 20 -44 -36 7 34 72 97 110 125 164 168 209 255 229 262 209 204 198 197 195 175 147 156 164 183 166 142 151 117 67 47 50 32
51 27 31 34 18 28 -17 25 14 45 120 83 118 89 71 57 21 3 49 6 29 25 52 99 150 179 201 254 281 283 291 282 209 172 175 185 144 165 191 212 194 203 198 193 139 31 9 63 66
17 38 21 10 46 53 33 41 -7 39 33 76 99 140 116 105 125 95 71 78 83 110 147 176 183 182 218 267 249 280 285 248 201 176 184 198 203 211 232 255 273 253 243 199 198 81 151 115 101
13 17 37 53 62 28 36 39 -21 35 6 42 67 100 137 137 118 114 109 140 151 168 191 240 274 210 218 239 252 285 277 217 202 180 206 237 248 267 271 285 313 360 522 341 181 73 163 160 112
29 58 39 53 58 1 18 22 -23 11 -3 8 117 202 233 233 209 200 247 288 261 257 264 269 275 224 252 216 212 288 229 193 143 185 223 275 292 330 360 402 507 561 460 421 230 338 146 225 173
40 57 58 24 29 16 19 -2 3 6 -4 -4 8 72 147 217 270 268 306 385 413 345 329 330 279 235 298 223 192 264 161 143 143 177 232 311 384 391 463 590 637 344 273 385 423 241 186 215 196
43 65 34 77 70 58 49 31 15 27 10 32 45 13 58 143 246 294 310 400 461 404 341 383 304 225 279 226 254 256 196 156 186 244 330 409 523 684 588 571 547 357 318 325 156 152 167 171 195
51 35 63 72 37 14 14 20 9 36 58 87 92 49 29 22 73 126 179 295 360 336 285 269 278 244 252 273 286 214 176 172 244 346 432 489 576 651 569 488 340 256 224 179 214 210 182 197 156
89 102 109 100 112 88 18 -6 24 18 46 68 46 17 3 17 42 67 100 161 218 241 255 241 223 246 246 204 214 208 228 293 335 405 509 593 534 691 411 335 278 223 226 150 181 181 165 139 113
87 91 145 164 118 107 84 12 45 7 11 7 2 21 39 24 15 33 72 121 174 188 206 175 198 200 204 251 285 298 354 446 458 550 655 610 491 369 316 312 322 333 7 123 162 161 145 125 117

GFSSGP_con_3kmhel_063.txt.gz
Helicity
56 60 68 66 22 59 61 47 28 44 27 41 69 75 67 77 40 80 14 48 149 254 181 136 136 144 161 181 189 182 161 131 118 133 159 134 106 85 59 61 61 43 24 16 4 0 12 28 27
63 67 72 55 29 35 26 33 37 56 52 27 46 106 122 93 87 38 33 21 111 198 184 150 145 148 166 176 180 155 116 99 98 119 140 110 93 75 56 59 43 22 22 30 30 28 28 27 32
63 67 43 37 19 7 22 35 42 93 37 58 61 98 76 113 65 75 5 9 89 180 177 164 168 152 152 137 130 106 89 84 99 112 125 92 87 76 60 50 36 28 24 38 41 45 41 42 46
48 56 55 19 7 22 27 34 11 21 41 40 39 66 38 68 43 41 97 54 69 180 162 186 190 175 138 124 117 107 95 86 76 112 114 80 85 84 61 56 34 39 20 24 38 54 57 61 67
59 46 31 5 25 31 35 -3 -17 -4 34 57 52 64 69 64 52 68 9 25 141 158 156 153 138 141 174 168 151 124 108 83 87 96 88 98 92 95 74 52 47 32 41 43 53 57 74 77 81
52 40 16 13 35 42 17 3 -23 -4 20 29 40 60 38 26 25 84 80 129 66 172 85 104 118 160 240 230 113 90 66 117 92 123 95 103 109 79 64 68 35 52 78 92 84 79 81 73 75
48 42 11 19 62 52 26 1 9 1 18 33 35 44 38 20 86 129 128 143 187 257 265 243 298 273 275 270 105 59 43 58 73 71 122 119 115 91 82 71 68 62 74 91 115 120 100 77 62
49 39 6 24 35 43 23 4 -3 -8 42 30 39 23 26 37 102 142 119 189 206 283 298 301 426 336 304 326 102 49 62 85 73 131 133 97 112 103 98 87 91 82 87 112 116 116 102 107 102
33 22 10 16 33 13 18 15 16 26 41 34 27 35 50 81 121 162 234 276 239 287 297 400 408 273 192 145 177 61 55 28 96 115 94 107 100 88 69 82 110 120 135 118 117 130 144 146 132
32 16 -19 -12 22 31 24 17 19 10 33 39 58 72 99 78 121 167 213 285 358 355 370 370 455 394 426 261 239 -23 -6 55 85 82 89 103 93 73 72 80 102 143 134 149 164 153 146 112 74
39 21 -28 -15 7 19 17 3 1 16 -23 14 46 76 87 65 87 151 215 195 210 281 442 681 457 127 144 -13 -15 19 10 48 88 92 98 99 91 72 60 67 79 76 111 116 125 115 103 101 81
18 29 -15 -3 18 19 3 1 -4 -17 -21 -18 24 32 22 49 80 139 156 198 322 273 40 39 -10 72 4 -128 -88 -10 20 44 74 81 75 75 68 67 65 65 69 100 110 143 136 100 96 117 93
17 23 9 23 43 55 30 23 -4 -28 0 70 59 32 -3 41 74 144 174 60 7 76 15 -36 -175 -156 -182 -101 -57 -24 3 40 32 12 24 56 55 60 65 77 104 133 129 142 109 106 127 94 89
26 17 15 25 25 25 20 20 15 -9 24 62 44 -5 -30 4 62 70 41 -8 -48 -102 -193 -271 -267 -114 -52 -43 -6 40 21 -6 -12 30 27 28 45 71 105 122 146 145 146 132 136 117 98 102 107
35 48 32 4 -15 4 27 -24 24 11 33 64 25 -23 -28 -15 -60 -34 -83 -140 -92 -161 -166 -149 -81 39 29 29 -10 -12 -7 31 22 26 30 28 60 96 134 150 146 168 157 162 146 122 100 107 101
61 52 30 -4 -33 -30 -27 22 -11 29 61 63 16 34 -31 -16 27 4 -2 -60 -55 -53 -104 12 25 24 15 11 9 6 0 29 23 19 23 45 85 115 135 133 173 156 156 150 130 110 114 110 103
64 16 6 12 -16 3 -2 65 10 60 33 15 18 13 -38 -20 -6 14 14 14 25 44 51 65 74 53 36 5 35 12 19 14 32 46 53 79 100 110 128 140 161 156 167 133 111 118 111 114 105
30 23 -20 25 14 22 105 160 29 35 49 13 11 16 45 15 23 25 22 21 31 32 47 44 54 34 5 5 -1 6 10 15 31 38 51 76 82 105 132 149 167 160 148 138 137 143 144 124 105
39 -2 24 12 -74 8 50 140 78 83 82 40 47 45 72 60 22 10 27 35 41 42 41 54 35 16 41 35 27 17 25 31 37 47 63 74 100 125 165 170 172 155 156 164 166 176 156 136 75
19 7 22 8 1 -7 36 67 28 111 127 98 51 56 55 43 18 3 -3 -7 3 41 57 25 14 38 44 36 51 48 59 51 60 75 91 77 123 151 172 177 181 191 205 185 176 181 157 113 53
5 21 -1 33 14 10 26 23 15 48 33 34 52 40 15 43 41 25 14 11 5 24 53 34 28 43 55 53 97 123 136 104 108 121 103 102 129 154 160 186 206 218 209 199 202 211 179 130 89
19 18 16 10 -8 -12 -9 13 -40 44 110 71 43 42 20 27 18 25 44 17 16 -10 2 26 39 64 82 107 122 154 143 163 149 146 132 137 149 172 190 224 246 245 234 231 245 227 188 207 114
14 11 18 52 4 22 17 7 -22 28 40 125 129 69 53 45 31 37 54 52 39 31 50 54 62 83 100 116 124 134 132 157 194 178 204 194 179 204 224 247 273 276 285 284 263 263 226 280 100
22 33 53 56 44 25 36 25 22 20 18 1 32 100 77 38 41 21 20 40 48 61 63 75 78 93 127 131 164 138 134 176 218 194 241 209 203 244 241 259 278 318 355 357 358 243 212 202 181
64 50 47 49 39 28 49 32 -1 1 -10 7 26 23 59 60 33 30 46 81 106 112 113 114 115 130 177 193 194 170 164 195 212 183 236 223 238 283 291 313 376 392 379 379 489 129 209 197 162
42 42 73 61 36 33 38 18 16 0 19 6 10 32 -19 10 18 44 70 107 163 187 148 144 188 156 156 222 222 230 231 215 209 202 182 192 249 261 314 382 408 449 409 350 246 108 155 146 199
53 88 52 85 58 20 26 24 3 7 10 20 41 40 35 -1 15 25 26 102 147 218 261 230 216 190 179 205 251 242 202 201 193 158 104 159 231 330 387 364 488 497 240 295 205 155 185 168 201
60 49 118 104 49 29 36 28 14 34 43 53 42 40 37 31 26 25 37 72 93 135 189 200 183 189 216 198 219 239 225 216 230 158 126 187 304 439 447 395 416 419 211 236 242 202 165 178 196
101 97 132 115 100 62 40 55 21 12 28 16 1 -29 -21 -25 -2 33 55 55 66 102 123 130 136 124 154 168 217 216 175 194 195 172 206 244 379 512 503 311 387 204 275 258 224 104 152 163 150
97 108 124 90 102 117 103 101 47 11 34 22 -7 -5 -5 -26 -15 21 26 43 54 44 72 95 104 104 100 117 155 146 160 184 232 263 277 333 362 450 307 309 273 316 247 197 161 134 143 174 143

GFSSGP_con_3kmhel_066.txt.gz
Helicity
39 26 20 9 8 22 -16 49 58 33 9 28 76 64 93 68 113 107 11 71 54 93 155 133 148 141 145 177 189 190 170 171 165 156 151 128 99 71 50 29 21 5 -5 1 6 19 24 22 20
40 25 14 21 -3 -1 11 70 34 51 53 35 46 55 91 49 77 51 20 5 53 114 131 125 154 149 161 175 186 177 159 157 154 151 148 116 94 63 50 32 9 -1 -16 -11 6 22 26 29 25
27 16 -4 4 2 -11 27 62 51 32 9 23 43 62 75 50 57 47 -12 17 86 125 142 176 162 171 171 176 173 169 157 156 152 146 134 97 96 72 67 44 26 13 8 9 22 28 34 36 27
18 31 26 -11 17 16 24 24 9 20 25 30 41 54 64 97 33 3 29 42 120 130 177 199 166 160 170 173 161 152 147 145 144 130 107 98 89 84 70 47 32 30 26 30 30 41 41 43 42
23 24 -1 -0 12 23 16 9 -12 14 36 57 42 57 60 54 21 21 52 74 111 167 172 174 166 162 172 174 155 150 145 149 155 125 97 124 90 79 73 62 51 29 24 28 45 51 52 46 51
27 12 -5 5 26 30 5 -2 -21 -0 5 33 37 59 63 36 47 51 39 52 224 92 129 126 114 160 185 178 164 143 137 147 149 110 114 121 110 95 87 76 52 54 43 60 69 68 62 61 60
-11 7 17 22 18 7 19 10 -17 -22 10 20 33 41 63 76 78 85 108 81 63 54 81 123 57 113 224 239 205 167 123 145 108 129 133 120 128 118 80 72 80 83 90 90 88 78 73 66 63
9 10 -3 3 32 38 45 3 14 -12 10 5 15 24 27 50 55 104 152 161 181 209 322 340 290 355 350 269 122 126 125 90 111 145 153 137 140 111 84 76 88 88 101 107 108 109 89 78 76
9 2 4 -12 20 29 18 7 27 13 14 -8 3 20 72 94 81 128 161 186 225 326 382 447 444 352 307 271 224 76 85 73 78 159 139 129 90 80 49 79 73 98 112 113 117 101 99 104 84
-6 -3 15 -1 13 28 22 -4 35 1 16 8 19 51 79 92 95 152 171 221 287 308 362 443 347 434 438 470 452 169 45 52 63 72 107 95 73 64 60 76 102 121 129 128 112 89 51 13 38
25 -10 20 6 -3 -3 7 -11 8 -8 -11 29 10 48 75 85 98 126 153 211 276 288 315 474 433 333 509 363 390 288 76 53 -4 70 81 105 88 61 53 51 70 67 92 82 63 45 55 66 59
4 5 -16 14 -1 -7 -3 17 4 -2 36 18 35 41 58 60 77 100 148 148 283 435 465 453 404 381 222 197 127 105 -102 -55 33 68 94 95 76 53 36 42 52 52 54 70 76 79 84 84 58
5 -0 2 11 14 29 28 33 8 30 37 46 62 69 65 59 76 79 121 190 311 319 231 255 271 200 118 183 -7 -94 -106 -25 45 80 81 41 38 38 46 51 58 64 62 84 92 92 80 55 44
26 22 23 7 6 15 8 19 10 54 33 47 50 18 -20 1 83 111 125 110 35 98 115 180 115 74 -181 -135 -75 -59 -48 -8 57 33 7 21 40 49 43 63 75 80 71 91 103 70 62 72 64
26 9 36 45 18 10 3 -18 13 31 47 52 53 -0 -23 -33 58 41 73 -9 24 19 19 31 -4 -180 -71 -65 -60 -56 4 -11 -13 -15 19 44 56 49 61 90 99 86 116 135 100 86 68 78 78
10 25 20 67 15 4 -22 41 35 19 43 54 46 45 30 23 -32 -32 -29 -58 -121 -125 -103 -87 -93 -74 -21 5 13 -18 -29 -9 6 47 32 55 52 61 92 101 95 115 110 121 103 77 95 87 80
32 -10 14 23 29 15 -3 45 21 17 18 39 40 43 33 50 4 11 -8 -28 -42 -33 -25 -37 7 -0 14 -13 -22 -15 -29 19 31 47 40 37 41 72 80 82 106 108 119 116 101 108 101 102 92
24 28 26 13 46 1 32 41 17 11 21 37 18 20 36 6 22 3 15 31 19 25 23 23 22 13 -4 -30 -17 -22 -49 -34 18 29 32 49 53 64 74 94 126 118 126 134 125 127 123 123 113
-25 -10 -2 7 27 33 20 58 23 23 9 40 44 38 20 17 26 24 20 22 72 66 45 43 37 25 -18 -36 -28 -17 -8 -0 7 24 29 46 48 65 76 113 134 128 137 159 153 147 132 144 136
4 28 16 -7 -3 29 37 28 35 12 14 34 54 45 48 58 43 29 26 28 43 56 58 51 37 8 -8 -12 -5 -2 -2 9 18 35 39 51 73 75 85 119 134 142 191 189 178 158 170 179 167
14 16 9 27 36 6 40 18 20 24 19 9 18 20 39 53 63 58 49 31 11 14 32 22 13 -0 2 -4 7 16 17 25 31 52 65 69 84 80 107 120 150 178 193 194 181 178 163 163 172
3 -20 28 21 17 4 12 10 19 5 29 34 27 39 21 16 9 18 36 44 34 12 2 16 3 1 6 22 30 41 52 39 43 55 65 90 103 109 124 141 177 191 208 209 191 184 193 190 126
26 29 -15 -8 6 22 32 8 66 7 4 38 36 37 26 30 37 28 45 40 34 13 12 11 17 24 31 51 50 60 52 53 77 79 87 111 138 162 145 170 209 218 217 210 215 238 228 163 179
40 29 32 22 21 11 51 10 22 27 35 13 10 16 21 23 28 33 20 8 20 29 29 39 47 53 62 75 75 77 86 103 136 98 139 203 210 192 174 170 195 211 221 240 268 258 207 177 157
12 16 45 48 32 12 35 -4 -25 20 14 27 38 37 -19 -5 9 -0 3 23 23 43 51 53 63 76 81 95 94 79 74 95 103 94 163 200 206 220 195 170 184 242 254 260 311 261 207 155 129
10 12 104 83 77 62 49 31 40 43 28 16 8 8 13 19 -5 4 -2 17 35 70 72 89 95 98 123 122 104 126 110 80 147 182 191 236 240 225 139 163 203 263 274 354 358 190 159 167 115
43 39 71 97 106 79 50 39 14 34 23 27 34 26 26 15 31 4 4 20 39 68 96 124 104 101 123 120 144 111 102 147 152 161 184 253 203 156 170 191 246 311 405 375 275 233 200 188 140
13 64 53 50 22 60 58 42 25 60 35 41 52 77 56 40 29 23 15 18 26 24 34 72 88 104 119 127 151 166 184 120 127 141 147 220 163 120 116 207 334 511 330 270 212 234 201 189 135
94 64 62 62 69 23 35 45 33 39 39 38 27 18 25 22 10 16 40 53 54 54 53 36 42 61 88 100 103 123 142 141 121 170 137 212 211 143 158 300 419 389 299 332 250 200 186 45 131
26 17 35 66 76 75 75 51 43 34 28 35 30 25 15 22 27 29 38 47 70 64 72 72 75 87 90 100 105 127 120 167 232 214 244 234 312 430 524 444 317 292 439 469 255 91 72 97 143

GFSSGP_con_3kmhel_069.txt.gz
Helicity
38 24 19 2 5 39 6 -20 80 53 26 183 92 69 0 29 52 222 67 60 89 151 127 125 163 172 148 153 163 163 160 152 131 114 98 96 58 41 36 29 21 24 17 15 8 9 13 16 11
9 18 8 -29 6 -18 32 83 36 34 54 55 26 57 18 37 -151 -16 7 1 47 127 137 146 173 176 151 163 165 174 158 145 124 105 95 75 50 49 34 32 13 13 -1 2 4 15 16 12 2
-12 2 -26 20 21 -16 41 10 31 36 47 41 36 45 51 64 112 109 24 32 90 175 107 217 181 172 171 168 183 175 147 132 113 102 101 77 59 56 42 33 13 0 -6 10 11 19 17 10 -1
9 30 24 -12 -28 23 42 39 43 8 69 39 3 21 117 112 67 127 46 48 100 132 168 206 193 170 183 190 185 158 145 128 114 118 126 87 78 78 63 58 34 16 10 25 18 24 18 12 -4
12 -4 -6 34 -3 39 46 27 14 8 5 9 31 -5 81 66 60 42 25 12 61 142 163 157 214 196 199 200 175 164 153 138 138 135 139 100 97 96 96 96 76 60 53 30 27 30 28 19 6
-13 17 -18 5 15 44 72 15 4 12 14 18 12 55 49 102 58 31 -11 63 52 292 162 151 157 215 199 187 190 182 160 150 142 151 138 107 126 110 111 105 96 80 64 49 49 40 36 24 14
-13 -25 -15 35 18 -1 48 25 2 11 11 28 31 0 113 63 105 43 66 60 127 174 221 259 173 138 263 255 244 226 180 151 157 165 141 134 131 96 115 98 85 83 80 71 63 52 41 35 24
-39 -11 15 17 19 39 32 6 62 31 36 21 3 33 36 128 129 129 148 87 127 121 127 268 259 182 347 256 223 201 180 170 159 147 134 151 137 114 117 100 102 83 84 79 62 57 55 46 20
5 -2 15 14 10 48 27 -7 69 42 -7 25 49 54 129 93 123 143 153 164 141 235 367 459 574 451 358 486 215 165 109 85 124 120 95 97 83 73 82 91 99 113 97 79 65 65 59 39 30
-1 17 26 41 34 39 37 20 19 2 10 29 61 49 65 86 100 111 129 181 234 319 367 472 464 613 561 405 203 89 41 16 68 59 32 51 71 55 64 80 114 112 97 77 73 42 -2 -33 20
17 14 36 18 42 23 9 -2 34 12 1 71 69 38 14 66 99 137 203 227 218 327 418 440 389 359 184 312 222 398 239 95 11 50 14 30 87 71 58 73 65 61 52 48 39 18 9 56 56
16 21 11 21 18 2 -11 54 -5 6 67 46 100 46 61 80 100 60 142 219 182 319 370 378 442 492 217 287 513 535 406 150 29 35 26 57 49 52 61 48 43 31 25 27 33 62 54 62 46
28 14 5 16 2 3 40 23 31 28 68 99 71 41 52 46 62 112 112 201 279 290 351 359 425 370 416 628 556 381 227 102 -68 11 8 21 49 51 27 38 35 25 39 36 71 79 56 51 36
27 1 8 22 31 44 9 36 37 109 70 59 34 31 13 36 102 96 102 165 381 519 492 428 288 91 123 174 44 38 7 -110 -127 -54 -10 18 39 57 45 47 36 58 47 66 68 76 56 43 48
-4 29 10 101 32 19 19 28 20 105 48 62 80 54 44 -3 37 91 131 135 54 100 42 59 34 16 1 -43 -142 -136 -100 -66 -51 -27 3 -6 -11 47 53 55 58 63 72 85 94 82 67 52 62
28 57 16 80 -11 60 6 74 79 68 34 50 80 55 94 47 -87 15 40 71 97 137 112 87 16 -77 -130 -118 -59 -67 -35 24 4 -27 -47 -36 90 66 64 79 90 68 101 97 101 76 65 74 70
39 35 61 75 25 5 29 11 4 36 40 42 36 76 50 77 28 -37 -54 -52 -27 -20 -56 -115 -84 -36 -16 -19 20 16 -4 -7 -45 -63 -45 12 60 51 59 61 52 102 101 120 91 94 75 94 82
15 19 -35 7 59 42 30 53 39 33 37 60 15 50 60 56 70 55 20 4 26 7 0 20 40 36 23 -6 -13 -29 -48 -50 -51 -31 19 38 55 56 33 50 96 90 119 106 106 115 113 100 115
-12 -10 9 21 47 8 7 47 51 45 28 37 55 49 75 50 -13 61 44 29 33 25 41 32 42 22 -6 -22 -29 -34 -28 -27 -24 20 36 44 39 39 42 65 94 81 109 115 130 135 144 129 118
-5 12 15 -3 33 16 20 -7 42 95 29 45 48 56 74 37 113 59 63 105 76 74 23 16 5 6 -15 -20 -24 -28 -15 1 5 51 35 37 49 57 56 81 110 102 113 130 140 140 133 126 121
12 8 3 -3 5 2 15 10 40 54 63 32 55 49 76 91 69 99 91 64 69 44 32 1 1 -6 -13 -24 -18 -14 -7 1 17 58 65 63 60 64 67 103 128 121 118 147 137 138 130 144 146
-5 21 -13 18 41 -31 35 28 32 61 68 75 58 84 72 81 54 48 59 60 41 16 8 10 0 -7 2 -24 11 12 19 32 35 75 59 52 57 79 85 111 117 147 146 154 151 131 148 142 222
-7 70 -1 11 12 41 -3 21 56 23 50 76 74 63 69 54 65 56 77 56 47 31 17 17 7 3 22 44 8 42 29 48 56 117 93 112 99 82 137 127 143 149 179 174 180 160 153 193 190
10 4 0 9 27 -4 54 7 93 34 -28 32 44 64 36 36 56 31 53 54 53 39 36 29 30 36 38 73 61 52 65 43 62 159 164 147 146 147 173 164 225 199 151 187 177 197 229 223 227
1 -9 3 21 33 -4 77 18 2 27 49 33 -9 23 22 22 65 66 37 45 31 57 61 50 53 52 79 81 86 76 78 68 65 138 114 219 183 193 208 204 271 266 169 178 202 253 285 232 225
19 -2 -14 -4 20 1 119 23 30 47 28 19 31 14 26 25 46 69 62 74 48 43 69 65 67 68 89 96 91 78 71 92 108 67 96 167 171 166 186 232 283 271 186 217 287 401 264 232 201
21 -8 -27 -75 -38 -10 4 40 29 41 44 41 42 30 38 30 10 50 42 48 75 69 100 114 78 73 67 124 93 80 104 114 168 144 144 183 208 259 238 257 279 202 226 378 492 424 346 255 199
-35 7 14 -16 -6 5 17 26 1 53 32 38 18 35 47 49 27 30 43 38 32 72 79 118 68 74 96 133 122 89 125 154 182 193 168 178 186 187 257 346 295 267 471 479 336 326 242 357 262
48 28 0 -11 -3 -3 -15 -14 84 36 29 19 24 23 25 43 28 27 30 43 70 80 97 128 81 78 109 128 159 159 162 206 216 234 213 147 204 242 371 351 414 491 516 414 311 304 316 350 146
41 50 18 3 -12 47 2 -68 37 25 5 61 20 32 22 42 45 44 31 39 58 71 93 118 111 76 91 115 181 167 167 229 209 274 312 375 391 450 557 484 421 325 233 213 312 232 168 157 73